EW2975 Weather Reports


Display with metric or nautical units.
time (UTC)temp
F
wind
direction
speed
MPH
gust
MPH
rain 1hr
in
rain 24hr
in
rain mn
in
humidity
%
barometer
mb
20260905153604 88 178 5.0 11.0 0.00 0.00 0.00 64 1014.2
20260905153505 88 182 5.0 11.0 0.00 0.00 0.00 64 1014.2
20260905153404 88 191 5.0 11.0 0.00 0.00 0.00 64 1014.2
20260905153306 88 192 5.0 11.0 0.00 0.00 0.00 64 1014.2
20260905153205 88 193 5.0 11.0 0.00 0.00 0.00 65 1014.2
20260905153105 88 192 5.0 11.0 0.00 0.00 0.00 65 1014.2
20260905153005 88 190 5.0 11.0 0.00 0.00 0.00 65 1014.2
20260905152905 88 186 5.0 11.0 0.00 0.00 0.00 65 1014.2
20260905152805 88 185 4.0 11.0 0.00 0.00 0.00 65 1014.2
20260905152704 88 183 4.0 10.0 0.00 0.00 0.00 65 1014.2
20260905152605 88 182 4.0 10.0 0.00 0.00 0.00 66 1014.1
20260905152505 88 177 4.0 10.0 0.00 0.00 0.00 66 1014.2
20260905152404 88 168 4.0 8.0 0.00 0.00 0.00 68 1014.2
20260905152306 88 169 4.0 9.0 0.00 0.00 0.00 68 1014.2
20260905152204 88 168 4.0 9.0 0.00 0.00 0.00 68 1014.3
20260905152105 87 170 5.0 9.0 0.00 0.00 0.00 68 1014.2
20260905152005 87 173 5.0 10.0 0.00 0.00 0.00 68 1014.2
20260905151704 87 181 5.0 10.0 0.00 0.00 0.00 68 1014.2
20260905151605 87 183 5.0 10.0 0.00 0.00 0.00 67 1014.1
20260905151404 87 182 5.0 10.0 0.00 0.00 0.00 69 1014.2
20260905151305 87 182 5.0 10.0 0.00 0.00 0.00 69 1014.2
20260905151204 86 179 5.0 10.0 0.00 0.00 0.00 69 1014.2
20260905151104 86 178 5.0 10.0 0.00 0.00 0.00 70 1014.2
20260905151005 86 178 5.0 9.0 0.00 0.00 0.00 70 1014.2
20260905150904 86 175 5.0 9.0 0.00 0.00 0.00 70 1014.2
20260905150805 86 178 5.0 9.0 0.00 0.00 0.00 69 1014.2
20260905150705 86 183 5.0 9.0 0.00 0.00 0.00 70 1014.2
20260905150604 86 186 5.0 9.0 0.00 0.00 0.00 69 1014.3
20260905150304 86 194 4.0 9.0 0.00 0.00 0.00 70 1014.3
20260905150205 86 197 5.0 11.0 0.00 0.00 0.00 70 1014.3
20260905150104 86 200 5.0 11.0 0.00 0.00 0.00 70 1014.3
20260905145904 86 202 5.0 11.0 0.00 0.00 0.00 70 1014.2
20260905145805 86 201 6.0 11.0 0.00 0.00 0.00 70 1014.2
20260905145704 85 196 6.0 12.0 0.00 0.00 0.00 70 1014.2
20260905145604 85 192 6.0 12.0 0.00 0.00 0.00 71 1014.2
20260905145505 85 190 6.0 12.0 0.00 0.00 0.00 71 1014.2
20260905145306 85 189 7.0 12.0 0.00 0.00 0.00 71 1014.2
20260905145205 85 189 6.0 12.0 0.00 0.00 0.00 71 1014.2
20260905145104 85 187 7.0 12.0 0.00 0.00 0.00 72 1014.2
20260905145005 85 186 7.0 12.0 0.00 0.00 0.00 72 1014.2
20260905144806 85 192 6.0 12.0 0.00 0.00 0.00 73 1014.2
20260905144704 85 196 6.0 11.0 0.00 0.00 0.00 73 1014.2
20260905144605 85 201 6.0 11.0 0.00 0.00 0.00 73 1014.2
20260905144504 84 205 6.0 11.0 0.00 0.00 0.00 73 1014.1
20260905144405 84 206 6.0 11.0 0.00 0.00 0.00 73 1014.2
20260905144305 84 204 6.0 11.0 0.00 0.00 0.00 73 1014.2
20260905144104 85 207 6.0 11.0 0.00 0.00 0.00 73 1014.2
20260905144005 85 212 6.0 11.0 0.00 0.00 0.00 72 1014.2
20260905143904 85 212 6.0 11.0 0.00 0.00 0.00 73 1014.2
20260905143804 85 209 6.0 11.0 0.00 0.00 0.00 73 1014.3
20260905143604 85 208 5.0 11.0 0.00 0.00 0.00 73 1014.2
20260905143405 84 205 5.0 10.0 0.00 0.00 0.00 75 1014.3
20260905143304 84 204 5.0 10.0 0.00 0.00 0.00 76 1014.2
20260905143205 84 203 5.0 10.0 0.00 0.00 0.00 76 1014.2
20260905143105 84 203 5.0 10.0 0.00 0.00 0.00 78 1014.3
20260905143004 84 198 4.0 10.0 0.00 0.00 0.00 78 1014.3
20260905142905 84 192 4.0 10.0 0.00 0.00 0.00 78 1014.3
20260905142805 84 188 4.0 7.0 0.00 0.00 0.00 78 1014.3
20260905142705 84 181 4.0 7.0 0.00 0.00 0.00 78 1014.2
20260905142605 84 177 4.0 7.0 0.00 0.00 0.00 78 1014.3
20260905142504 83 175 4.0 8.0 0.00 0.00 0.00 78 1014.3
20260905142306 83 178 4.0 8.0 0.00 0.00 0.00 78 1014.3
20260905142105 83 174 4.0 8.0 0.00 0.00 0.00 78 1014.3
20260905142005 83 175 3.0 8.0 0.00 0.00 0.00 79 1014.3
20260905141905 83 178 3.0 8.0 0.00 0.00 0.00 80 1014.2
20260905141805 82 181 3.0 8.0 0.00 0.00 0.00 79 1014.3
20260905141705 82 182 3.0 8.0 0.00 0.00 0.00 79 1014.2
20260905141604 82 179 3.0 8.0 0.00 0.00 0.00 79 1014.2
20260905141505 82 178 3.0 7.0 0.00 0.00 0.00 80 1014.3
20260905141405 82 173 3.0 7.0 0.00 0.00 0.00 80 1014.4
20260905141305 82 174 3.0 7.0 0.00 0.00 0.00 80 1014.3
20260905141205 82 175 3.0 7.0 0.00 0.00 0.00 80 1014.3
20260905141104 82 173 3.0 6.0 0.00 0.00 0.00 81 1014.4
20260905141005 82 167 3.0 6.0 0.00 0.00 0.00 80 1014.2
20260905140904 82 168 3.0 7.0 0.00 0.00 0.00 80 1014.3
20260905140806 82 167 3.0 7.0 0.00 0.00 0.00 81 1014.3
20260905140705 82 166 3.0 7.0 0.00 0.00 0.00 81 1014.3
20260905140605 82 168 3.0 7.0 0.00 0.00 0.00 81 1014.3
20260905140504 82 170 3.0 7.0 0.00 0.00 0.00 81 1014.2
20260905140304 82 172 3.0 7.0 0.00 0.00 0.00 82 1014.2
20260905140205 81 171 3.0 7.0 0.00 0.00 0.00 82 1014.2
20260905140104 81 173 3.0 7.0 0.00 0.00 0.00 82 1014.2
20260905140005 81 174 3.0 7.0 0.00 0.00 0.00 82 1014.3
20260905135904 81 176 2.0 5.0 0.00 0.00 0.00 82 1014.3
20260905135806 81 177 2.0 5.0 0.00 0.00 0.00 82 1014.3
20260905135705 81 178 3.0 6.0 0.00 0.00 0.00 82 1014.2
20260905135604 81 181 3.0 6.0 0.00 0.00 0.00 82 1014.2
20260905135405 81 175 2.0 6.0 0.00 0.00 0.00 82 1014.2
20260905135205 80 168 2.0 6.0 0.00 0.00 0.00 83 1014.1
20260905135104 80 165 2.0 6.0 0.00 0.00 0.00 83 1014.2
20260905135005 80 164 2.0 6.0 0.00 0.00 0.00 83 1014.2
20260905134904 80 158 3.0 6.0 0.00 0.00 0.00 84 1014.2
20260905134705 80 146 3.0 6.0 0.00 0.00 0.00 83 1014.2
20260905134605 80 136 3.0 5.0 0.00 0.00 0.00 84 1014.1
20260905134505 80 131 3.0 5.0 0.00 0.00 0.00 84 1014.1
20260905134404 80 129 2.0 5.0 0.00 0.00 0.00 84 1014.1
20260905134305 80 129 2.0 5.0 0.00 0.00 0.00 84 1014.1
20260905134204 79 130 2.0 5.0 0.00 0.00 0.00 84 1014.0
20260905134105 79 131 2.0 5.0 0.00 0.00 0.00 84 1014.1
20260905134005 79 130 2.0 5.0 0.00 0.00 0.00 84 1014.0
20260905133904 79 127 2.0 5.0 0.00 0.00 0.00 84 1014.0
20260905133805 79 127 2.0 5.0 0.00 0.00 0.00 84 1014.0
20260905133704 79 126 2.0 5.0 0.00 0.00 0.00 84 1014.0
20260905133605 79 128 2.0 4.0 0.00 0.00 0.00 84 1014.0
20260905133405 79 131 2.0 4.0 0.00 0.00 0.00 85 1014.0
20260905133304 79 132 2.0 4.0 0.00 0.00 0.00 85 1014.0
20260905133205 79 130 2.0 4.0 0.00 0.00 0.00 85 1014.0
20260905133104 79 128 2.0 4.0 0.00 0.00 0.00 85 1014.0
20260905133004 78 127 2.0 4.0 0.00 0.00 0.00 85 1014.0
20260905132905 78 128 2.0 4.0 0.00 0.00 0.00 85 1014.0
20260905132804 78 127 2.0 4.0 0.00 0.00 0.00 86 1014.0
20260905132705 78 128 1.0 4.0 0.00 0.00 0.00 85 1014.0
20260905132604 78 129 1.0 4.0 0.00 0.00 0.00 86 1013.9
20260905132505 78 129 1.0 4.0 0.00 0.00 0.00 85 1013.9
20260905132404 78 129 1.0 4.0 0.00 0.00 0.00 86 1014.0
20260905132306 78 125 0.0 4.0 0.00 0.00 0.00 86 1014.0
20260905132205 78 121 0.0 3.0 0.00 0.00 0.00 86 1013.9
20260905132006 77 0 0.0 0.0 0.00 0.00 0.00 86 1013.9
20260905131805 77 125 0.0 1.0 0.00 0.00 0.00 86 1013.9
20260905131704 77 125 0.0 1.0 0.00 0.00 0.00 86 1013.9
20260905131504 77 125 0.0 1.0 0.00 0.00 0.00 86 1013.9
20260905131304 77 125 0.0 1.0 0.00 0.00 0.00 86 1013.9
20260905131106 77 125 0.0 1.0 0.00 0.00 0.00 86 1013.9
20260905131005 77 125 0.0 1.0 0.00 0.00 0.00 86 1013.8
20260905130905 77 0 0.0 0.0 0.00 0.00 0.00 86 1013.8
20260905130805 77 0 0.0 0.0 0.00 0.00 0.00 87 1013.9
20260905130708 76 0 0.0 0.0 0.00 0.00 0.00 87 1013.8
20260905130604 76 0 0.0 0.0 0.00 0.00 0.00 87 1013.8
20260905130505 76 0 0.0 0.0 0.00 0.00 0.00 87 1013.8
20260905130404 76 0 0.0 0.0 0.00 0.00 0.00 87 1013.7
20260905130305 76 0 0.0 0.0 0.00 0.00 0.00 87 1013.8
20260905130205 76 0 0.0 0.0 0.00 0.00 0.00 87 1013.8
20260905130105 76 0 0.0 0.0 0.00 0.00 0.00 87 1013.7
20260905130004 76 0 0.0 0.0 0.00 0.00 0.00 87 1013.7
20260905125904 76 0 0.0 0.0 0.00 0.00 0.00 87 1013.7
20260905125804 76 0 0.0 0.0 0.00 0.00 0.00 88 1013.7
20260905125705 76 0 0.0 0.0 0.00 0.00 0.00 88 1013.7
20260905125604 76 0 0.0 0.0 0.00 0.00 0.00 88 1013.7
20260905125504 76 0 0.0 0.0 0.00 0.00 0.00 88 1013.6
20260905125405 75 0 0.0 0.0 0.00 0.00 0.00 88 1013.6
20260905125306 75 0 0.0 0.0 0.00 0.00 0.00 88 1013.6
20260905125204 75 0 0.0 0.0 0.00 0.00 0.00 88 1013.6
20260905125105 75 0 0.0 0.0 0.00 0.00 0.00 88 1013.5
20260905125004 75 0 0.0 0.0 0.00 0.00 0.00 88 1013.6
20260905124905 75 0 0.0 0.0 0.00 0.00 0.00 88 1013.5
20260905124804 75 0 0.0 0.0 0.00 0.00 0.00 88 1013.6
20260905124705 75 0 0.0 0.0 0.00 0.00 0.00 88 1013.5
20260905124604 75 0 0.0 0.0 0.00 0.00 0.00 89 1013.5
20260905124504 75 0 0.0 0.0 0.00 0.00 0.00 89 1013.5
20260905124404 74 0 0.0 0.0 0.00 0.00 0.00 89 1013.4
20260905124304 74 0 0.0 0.0 0.00 0.00 0.00 89 1013.4
20260905124104 74 0 0.0 0.0 0.00 0.00 0.00 89 1013.4
20260905123904 74 0 0.0 0.0 0.00 0.00 0.00 89 1013.4
20260905123805 74 0 0.0 0.0 0.00 0.00 0.00 89 1013.3
20260905123704 74 0 0.0 0.0 0.00 0.00 0.00 89 1013.3
20260905123604 74 0 0.0 0.0 0.00 0.00 0.00 89 1013.3
20260905123504 74 0 0.0 0.0 0.00 0.00 0.00 89 1013.4
20260905123405 74 0 0.0 0.0 0.00 0.00 0.00 89 1013.4
20260905123205 74 0 0.0 0.0 0.00 0.00 0.00 89 1013.4
20260905123104 74 0 0.0 0.0 0.00 0.00 0.00 89 1013.4
20260905123005 74 0 0.0 0.0 0.00 0.00 0.00 89 1013.4
20260905122805 74 0 0.0 0.0 0.00 0.00 0.00 89 1013.4
20260905122604 74 0 0.0 0.0 0.00 0.00 0.00 89 1013.4
20260905122505 74 0 0.0 0.0 0.00 0.00 0.00 89 1013.3
20260905122404 74 0 0.0 0.0 0.00 0.00 0.00 89 1013.3
20260905122307 74 0 0.0 0.0 0.00 0.00 0.00 89 1013.3
20260905122204 74 0 0.0 0.0 0.00 0.00 0.00 89 1013.3
20260905122104 74 0 0.0 0.0 0.00 0.00 0.00 89 1013.3
20260905122005 74 0 0.0 0.0 0.00 0.00 0.00 89 1013.4
20260905121905 74 0 0.0 0.0 0.00 0.00 0.00 89 1013.4
20260905121804 74 0 0.0 0.0 0.00 0.00 0.00 89 1013.4
20260905121705 74 0 0.0 0.0 0.00 0.00 0.00 89 1013.4
20260905121504 74 0 0.0 0.0 0.00 0.00 0.00 88 1013.4
20260905121405 74 0 0.0 0.0 0.00 0.00 0.00 88 1013.3
20260905121205 74 0 0.0 0.0 0.00 0.00 0.00 88 1013.4
20260905121104 74 0 0.0 0.0 0.00 0.00 0.00 88 1013.3
20260905121004 74 0 0.0 0.0 0.00 0.00 0.00 88 1013.3
20260905120904 74 0 0.0 0.0 0.00 0.00 0.00 88 1013.3
20260905120804 74 0 0.0 0.0 0.00 0.00 0.00 88 1013.3
20260905120704 74 0 0.0 0.0 0.00 0.00 0.00 88 1013.3
20260905120604 74 0 0.0 0.0 0.00 0.00 0.00 88 1013.3
20260905120505 74 0 0.0 0.0 0.00 0.00 0.00 88 1013.3
20260905120405 74 0 0.0 0.0 0.00 0.00 0.00 88 1013.2
20260905120304 74 0 0.0 0.0 0.00 0.00 0.00 88 1013.2
20260905120204 74 0 0.0 0.0 0.00 0.00 0.00 88 1013.2
20260905120105 74 0 0.0 0.0 0.00 0.00 0.00 88 1013.2
20260905115904 74 0 0.0 0.0 0.00 0.00 0.00 88 1013.2
20260905115704 74 0 0.0 0.0 0.00 0.01 0.00 88 1013.1
20260905115605 74 0 0.0 0.0 0.00 0.01 0.00 88 1013.2
20260905115504 74 0 0.0 0.0 0.00 0.01 0.00 88 1013.2
20260905115405 74 0 0.0 0.0 0.00 0.01 0.00 88 1013.2
20260905115306 74 0 0.0 0.0 0.00 0.01 0.00 88 1013.1
20260905115204 74 0 0.0 0.0 0.00 0.01 0.00 88 1013.1
20260905115104 74 0 0.0 0.0 0.00 0.01 0.00 88 1013.1
20260905115004 74 0 0.0 0.0 0.00 0.01 0.00 88 1013.1
20260905114905 74 0 0.0 0.0 0.00 0.01 0.00 88 1013.0
20260905114804 74 0 0.0 0.0 0.00 0.01 0.00 88 1013.1
20260905114705 74 0 0.0 0.0 0.00 0.01 0.00 88 1013.0
20260905114604 74 0 0.0 0.0 0.00 0.01 0.00 88 1013.0
20260905114504 74 0 0.0 0.0 0.00 0.01 0.00 88 1012.9
20260905114404 74 0 0.0 0.0 0.00 0.01 0.00 88 1012.9
20260905114304 74 0 0.0 0.0 0.00 0.01 0.00 88 1012.9
20260905114204 74 0 0.0 0.0 0.00 0.01 0.00 88 1012.9
20260905114104 74 0 0.0 0.0 0.00 0.01 0.00 88 1012.8
20260905113904 74 0 0.0 0.0 0.00 0.01 0.00 88 1012.8
20260905113804 74 0 0.0 0.0 0.00 0.01 0.00 88 1012.8
20260905113704 74 0 0.0 0.0 0.00 0.01 0.00 88 1012.9
20260905113604 74 0 0.0 0.0 0.00 0.01 0.00 88 1012.9
20260905113505 74 0 0.0 0.0 0.00 0.01 0.00 88 1012.8
20260905113404 74 0 0.0 0.0 0.00 0.01 0.00 88 1012.8
20260905113204 74 0 0.0 0.0 0.00 0.01 0.00 88 1012.8
20260905113105 74 0 0.0 0.0 0.00 0.01 0.00 88 1012.8
20260905113004 74 0 0.0 0.0 0.00 0.01 0.00 88 1012.8
20260905112905 74 0 0.0 0.0 0.00 0.01 0.00 88 1012.8
20260905112804 74 0 0.0 0.0 0.00 0.01 0.00 88 1012.8
20260905112705 75 0 0.0 0.0 0.00 0.01 0.00 88 1012.7
20260905112604 75 210 0.0 1.0 0.00 0.01 0.00 88 1012.7
20260905112505 74 210 0.0 2.0 0.00 0.01 0.00 88 1012.7
20260905112404 75 210 0.0 2.0 0.00 0.01 0.00 88 1012.7
20260905112306 75 210 0.0 2.0 0.00 0.01 0.00 88 1012.6
20260905112204 75 210 0.0 2.0 0.00 0.01 0.00 88 1012.6
20260905111905 75 210 0.0 2.0 0.00 0.01 0.00 88 1012.6
20260905111804 75 210 0.0 2.0 0.00 0.01 0.00 88 1012.6
20260905111704 75 210 0.0 2.0 0.00 0.01 0.00 88 1012.6
20260905111604 75 210 0.0 2.0 0.00 0.01 0.00 88 1012.6
20260905111504 75 210 0.0 2.0 0.00 0.01 0.00 88 1012.6
20260905111405 75 210 0.0 2.0 0.00 0.01 0.00 88 1012.6
20260905111305 75 210 0.0 2.0 0.00 0.01 0.00 88 1012.6
20260905111204 75 0 0.0 0.0 0.00 0.01 0.00 88 1012.6
20260905111104 75 0 0.0 0.0 0.00 0.01 0.00 88 1012.6
20260905110904 75 0 0.0 0.0 0.00 0.01 0.00 87 1012.6
20260905110604 75 0 0.0 0.0 0.00 0.01 0.00 87 1012.6
20260905110505 75 0 0.0 0.0 0.00 0.01 0.00 88 1012.5
20260905110406 75 0 0.0 0.0 0.00 0.01 0.00 87 1012.6
20260905110305 75 0 0.0 0.0 0.00 0.01 0.00 87 1012.6
20260905110204 75 0 0.0 0.0 0.00 0.01 0.00 87 1012.6
20260905110105 75 0 0.0 0.0 0.00 0.01 0.00 87 1012.6
20260905105905 75 0 0.0 0.0 0.00 0.01 0.00 87 1012.5
20260905105804 75 0 0.0 0.0 0.00 0.01 0.00 87 1012.5
20260905105705 75 0 0.0 0.0 0.00 0.01 0.00 87 1012.5
20260905105604 76 0 0.0 0.0 0.00 0.01 0.00 87 1012.5
20260905105505 76 0 0.0 0.0 0.00 0.01 0.00 87 1012.6
20260905105404 76 0 0.0 0.0 0.00 0.01 0.00 87 1012.6
20260905105104 76 0 0.0 0.0 0.00 0.01 0.00 87 1012.6
20260905105006 76 209 0.0 2.0 0.00 0.01 0.00 87 1012.6
20260905104904 76 210 0.0 2.0 0.00 0.01 0.00 87 1012.6
20260905104805 76 210 0.0 2.0 0.00 0.01 0.00 86 1012.6
20260905104604 76 210 1.0 2.0 0.00 0.01 0.00 87 1012.6
20260905104504 76 209 1.0 4.0 0.00 0.01 0.00 87 1012.6
20260905104404 76 205 1.0 4.0 0.00 0.01 0.00 87 1012.6
20260905104104 76 204 1.0 4.0 0.00 0.01 0.00 86 1012.5
20260905104004 76 203 1.0 4.0 0.00 0.01 0.00 87 1012.6
20260905103904 76 203 1.0 4.0 0.00 0.01 0.00 87 1012.5
20260905103704 76 202 1.0 4.0 0.00 0.01 0.00 87 1012.6
20260905103604 76 202 1.0 4.0 0.00 0.01 0.00 87 1012.6
20260905103504 76 200 1.0 4.0 0.00 0.01 0.00 87 1012.6
20260905103404 76 202 1.0 4.0 0.00 0.01 0.00 87 1012.6
20260905103205 76 201 1.0 3.0 0.00 0.01 0.00 86 1012.6
20260905103105 76 199 1.0 3.0 0.00 0.01 0.00 86 1012.6
20260905103004 76 197 1.0 3.0 0.00 0.01 0.00 86 1012.6
20260905102905 76 198 1.0 3.0 0.00 0.01 0.00 86 1012.6
20260905102704 76 202 1.0 3.0 0.00 0.01 0.00 86 1012.6
20260905102603 76 203 1.0 3.0 0.00 0.01 0.00 86 1012.6
20260905102504 76 204 1.0 3.0 0.00 0.01 0.00 86 1012.6
20260905102306 76 207 1.0 2.0 0.00 0.01 0.00 86 1012.7
20260905102204 76 209 1.0 3.0 0.00 0.01 0.00 86 1012.7
20260905102105 76 209 1.0 3.0 0.00 0.01 0.00 86 1012.7
20260905102004 76 210 1.0 4.0 0.00 0.01 0.00 87 1012.7
20260905101804 76 211 1.0 4.0 0.00 0.01 0.00 87 1012.7
20260905101604 76 210 1.0 4.0 0.00 0.01 0.00 87 1012.7
20260905101504 76 210 1.0 4.0 0.00 0.01 0.00 87 1012.7
20260905101404 76 209 1.0 4.0 0.00 0.01 0.00 87 1012.7
20260905101305 76 207 0.0 4.0 0.00 0.01 0.00 87 1012.7
20260905101204 76 205 0.0 4.0 0.00 0.01 0.00 87 1012.7
20260905101104 76 209 0.0 4.0 0.00 0.01 0.00 87 1012.7
20260905101004 76 0 0.0 0.0 0.00 0.01 0.00 87 1012.6
20260905100905 75 0 0.0 0.0 0.00 0.01 0.00 87 1012.6
20260905100804 75 0 0.0 0.0 0.00 0.01 0.00 86 1012.6
20260905100705 75 0 0.0 0.0 0.00 0.01 0.00 86 1012.7
20260905100506 75 0 0.0 0.0 0.00 0.01 0.00 86 1012.6
20260905100404 75 0 0.0 0.0 0.00 0.01 0.00 86 1012.6
20260905100304 75 0 0.0 0.0 0.00 0.01 0.00 86 1012.6
20260905100204 75 0 0.0 0.0 0.00 0.01 0.00 86 1012.7
20260905100105 75 0 0.0 0.0 0.00 0.01 0.00 86 1012.7
20260905100004 75 0 0.0 0.0 0.00 0.01 0.00 86 1012.7
20260905095804 75 0 0.0 0.0 0.00 0.01 0.00 86 1012.7
20260905095704 75 0 0.0 0.0 0.00 0.01 0.00 86 1012.7
20260905095603 75 0 0.0 0.0 0.00 0.01 0.00 86 1012.7
20260905095504 75 0 0.0 0.0 0.00 0.01 0.00 86 1012.7
20260905095404 75 0 0.0 0.0 0.00 0.01 0.00 86 1012.7
20260905095306 75 0 0.0 0.0 0.00 0.01 0.00 86 1012.7
20260905095204 75 0 0.0 0.0 0.00 0.01 0.00 86 1012.7
20260905095105 75 0 0.0 0.0 0.00 0.01 0.00 85 1012.7
20260905095004 75 0 0.0 0.0 0.00 0.01 0.00 85 1012.8
20260905094804 75 0 0.0 0.0 0.00 0.01 0.00 85 1012.7
20260905094704 75 0 0.0 0.0 0.00 0.01 0.00 85 1012.7
20260905094604 75 0 0.0 0.0 0.00 0.01 0.00 85 1012.7
20260905094404 76 0 0.0 0.0 0.00 0.01 0.00 85 1012.7
20260905094305 76 0 0.0 0.0 0.00 0.01 0.00 85 1012.7
20260905094204 76 0 0.0 0.0 0.00 0.01 0.00 85 1012.7
20260905094104 76 0 0.0 0.0 0.00 0.01 0.00 85 1012.7
20260905094005 76 0 0.0 0.0 0.00 0.01 0.00 85 1012.7
20260905093803 76 0 0.0 0.0 0.00 0.01 0.00 84 1012.6
20260905093604 76 0 0.0 0.0 0.00 0.01 0.00 84 1012.6
20260905093504 76 0 0.0 0.0 0.00 0.01 0.00 84 1012.6
20260905093404 76 0 0.0 0.0 0.00 0.01 0.00 84 1012.6
20260905093304 76 0 0.0 0.0 0.00 0.01 0.00 84 1012.6
20260905093204 76 210 2.0 5.0 0.00 0.01 0.00 84 1012.6
20260905093105 76 210 2.0 5.0 0.00 0.01 0.00 84 1012.6
20260905093004 76 210 2.0 5.0 0.00 0.01 0.00 84 1012.6
20260905092804 76 210 2.0 5.0 0.00 0.01 0.00 84 1012.7
20260905092705 76 210 2.0 5.0 0.00 0.01 0.00 84 1012.7
20260905092604 76 210 2.0 5.0 0.00 0.01 0.00 84 1012.7
20260905092504 77 210 2.0 5.0 0.00 0.01 0.00 84 1012.6
20260905092404 77 210 2.0 5.0 0.00 0.01 0.00 84 1012.7
20260905092004 77 210 2.0 5.0 0.00 0.01 0.00 84 1012.6
20260905091905 77 210 2.0 5.0 0.00 0.01 0.00 84 1012.6
20260905091604 77 210 2.0 5.0 0.00 0.01 0.00 84 1012.6
20260905091504 77 210 2.0 5.0 0.00 0.01 0.00 84 1012.6
20260905091304 77 210 2.0 5.0 0.00 0.01 0.00 84 1012.7
20260905091204 77 210 2.0 5.0 0.00 0.01 0.00 84 1012.7
20260905091105 77 210 2.0 5.0 0.00 0.01 0.00 84 1012.7
20260905091004 77 210 2.0 5.0 0.00 0.01 0.00 83 1012.7
20260905090905 77 210 2.0 5.0 0.00 0.01 0.00 83 1012.7
20260905090804 77 210 2.0 5.0 0.00 0.01 0.00 83 1012.7
20260905090604 77 210 2.0 5.0 0.00 0.01 0.00 83 1012.7
20260905090505 77 210 2.0 5.0 0.00 0.01 0.00 83 1012.7
20260905090404 77 209 2.0 5.0 0.00 0.01 0.00 83 1012.7
20260905090304 77 207 2.0 5.0 0.00 0.01 0.00 83 1012.7
20260905090204 77 206 2.0 5.0 0.00 0.01 0.00 83 1012.7
20260905090105 77 204 2.0 5.0 0.00 0.01 0.00 83 1012.8
20260905085905 77 202 1.0 5.0 0.00 0.01 0.00 83 1012.8
20260905085804 77 201 1.0 5.0 0.00 0.01 0.00 83 1012.7
20260905085704 77 202 1.0 3.0 0.00 0.01 0.00 83 1012.7
20260905085604 77 201 1.0 3.0 0.00 0.01 0.00 83 1012.7
20260905085504 77 203 1.0 4.0 0.00 0.01 0.00 83 1012.8
20260905085204 77 202 2.0 4.0 0.00 0.01 0.00 83 1012.8
20260905085104 77 203 2.0 4.0 0.00 0.01 0.00 83 1012.8
20260905085005 77 203 2.0 4.0 0.00 0.01 0.00 83 1012.7
20260905084904 77 204 2.0 4.0 0.00 0.01 0.00 83 1012.8
20260905084804 77 202 2.0 4.0 0.00 0.01 0.00 83 1012.8
20260905084704 77 202 2.0 4.0 0.00 0.01 0.00 83 1012.7
20260905084605 77 202 2.0 4.0 0.00 0.01 0.00 83 1012.6
20260905084505 77 200 2.0 4.0 0.00 0.01 0.00 83 1012.7
20260905084404 77 200 2.0 4.0 0.00 0.01 0.00 82 1012.6
20260905084304 77 199 2.0 4.0 0.00 0.01 0.00 82 1012.6
20260905084204 77 198 2.0 4.0 0.00 0.01 0.00 82 1012.6
20260905084003 77 197 2.0 5.0 0.00 0.01 0.00 82 1012.7
20260905083904 77 197 2.0 5.0 0.00 0.01 0.00 82 1012.6
20260905083804 77 197 2.0 5.0 0.00 0.01 0.00 82 1012.7
20260905083704 77 197 2.0 5.0 0.00 0.01 0.00 82 1012.6
20260905083604 77 197 2.0 6.0 0.00 0.01 0.00 82 1012.7
20260905083504 77 198 2.0 6.0 0.00 0.01 0.00 82 1012.6
20260905083404 77 199 2.0 6.0 0.00 0.01 0.00 82 1012.6
20260905083304 77 200 2.0 6.0 0.00 0.01 0.00 82 1012.6
20260905083204 77 200 2.0 6.0 0.00 0.01 0.00 82 1012.6
20260905083104 77 200 1.0 6.0 0.00 0.01 0.00 82 1012.6
20260905082904 77 200 1.0 6.0 0.00 0.01 0.00 82 1012.6
20260905082804 77 201 1.0 6.0 0.00 0.01 0.00 82 1012.6
20260905082704 77 200 0.0 6.0 0.00 0.01 0.00 82 1012.6
20260905082603 77 203 0.0 5.0 0.00 0.01 0.00 82 1012.6
20260905082504 77 205 0.0 5.0 0.00 0.01 0.00 82 1012.6
20260905082307 77 0 0.0 0.0 0.00 0.01 0.00 82 1012.6
20260905082204 77 0 0.0 0.0 0.00 0.01 0.00 82 1012.7
20260905082004 77 0 0.0 0.0 0.00 0.01 0.00 82 1012.7
20260905081904 77 0 0.0 0.0 0.00 0.01 0.00 82 1012.6
20260905081804 77 0 0.0 0.0 0.00 0.01 0.00 82 1012.6
20260905081604 77 0 0.0 0.0 0.00 0.01 0.00 82 1012.6
20260905081504 77 0 0.0 0.0 0.00 0.01 0.00 82 1012.7
20260905081404 77 0 0.0 0.0 0.00 0.01 0.00 82 1012.7
20260905081305 77 0 0.0 0.0 0.00 0.01 0.00 82 1012.7
20260905081204 77 0 0.0 0.0 0.00 0.01 0.00 82 1012.7
20260905081104 77 0 0.0 0.0 0.00 0.01 0.00 82 1012.7
20260905081005 77 0 0.0 0.0 0.00 0.01 0.00 82 1012.7
20260905080904 77 0 0.0 0.0 0.00 0.01 0.00 81 1012.7
20260905080803 77 0 0.0 0.0 0.00 0.01 0.00 81 1012.7
20260905080604 77 0 0.0 0.0 0.00 0.01 0.00 81 1012.7
20260905080504 77 0 0.0 0.0 0.00 0.01 0.00 81 1012.7
20260905080304 77 0 0.0 0.0 0.00 0.01 0.00 81 1012.7
20260905080104 78 0 0.0 0.0 0.00 0.01 0.00 80 1012.7
20260905080004 78 0 0.0 0.0 0.00 0.01 0.00 80 1012.8
20260905075904 78 0 0.0 0.0 0.00 0.01 0.00 80 1012.8
20260905075804 78 0 0.0 0.0 0.00 0.01 0.00 80 1012.7
20260905075604 78 0 0.0 0.0 0.00 0.01 0.00 80 1012.8
20260905075504 78 0 0.0 0.0 0.00 0.01 0.00 80 1012.8
20260905075404 78 0 0.0 0.0 0.00 0.01 0.00 80 1012.8
20260905075306 78 0 0.0 0.0 0.00 0.01 0.00 80 1012.8
20260905075104 78 0 0.0 0.0 0.00 0.01 0.00 80 1012.8
20260905074904 78 0 0.0 0.0 0.00 0.01 0.00 80 1012.8
20260905074804 78 0 0.0 0.0 0.00 0.01 0.00 80 1012.7
20260905074704 78 0 0.0 0.0 0.00 0.01 0.00 80 1012.7
20260905074603 78 0 0.0 0.0 0.00 0.01 0.00 80 1012.7
20260905074504 78 0 0.0 0.0 0.00 0.01 0.00 80 1012.7
20260905074403 78 0 0.0 0.0 0.00 0.01 0.00 80 1012.7
20260905074304 78 0 0.0 0.0 0.00 0.01 0.00 80 1012.8
20260905074203 78 0 0.0 0.0 0.00 0.01 0.00 80 1012.8
20260905074104 78 0 0.0 0.0 0.00 0.01 0.00 80 1012.8
20260905074006 78 0 0.0 0.0 0.00 0.01 0.00 80 1012.8
20260905073904 78 0 0.0 0.0 0.00 0.01 0.00 80 1012.8
20260905073705 78 0 0.0 0.0 0.00 0.01 0.00 79 1012.8
20260905073605 78 0 0.0 0.0 0.00 0.01 0.00 79 1012.8
20260905073504 78 0 0.0 0.0 0.00 0.01 0.00 79 1012.8
20260905073404 78 0 0.0 0.0 0.00 0.01 0.00 79 1012.8
20260905073304 78 0 0.0 0.0 0.00 0.01 0.00 79 1012.8
20260905073206 78 0 0.0 0.0 0.00 0.01 0.00 79 1012.8
20260905073105 78 0 0.0 0.0 0.00 0.01 0.00 79 1012.8
20260905072904 78 0 0.0 0.0 0.00 0.01 0.00 79 1012.8
20260905072805 78 0 0.0 0.0 0.00 0.01 0.00 79 1012.7
20260905072704 78 0 0.0 0.0 0.00 0.01 0.00 79 1012.7
20260905072404 78 0 0.0 0.0 0.00 0.01 0.00 79 1012.7
20260905072204 78 0 0.0 0.0 0.00 0.01 0.00 79 1012.8
20260905072104 78 0 0.0 0.0 0.00 0.01 0.00 79 1012.8
20260905072005 78 0 0.0 0.0 0.00 0.01 0.00 79 1012.8
20260905071904 78 0 0.0 0.0 0.00 0.01 0.00 79 1012.8
20260905071804 78 0 0.0 0.0 0.00 0.01 0.00 79 1012.9
20260905071704 78 0 0.0 0.0 0.00 0.01 0.00 79 1012.9
20260905071603 78 0 0.0 0.0 0.00 0.01 0.00 79 1012.9
20260905071404 78 184 0.0 1.0 0.00 0.01 0.00 79 1012.9
20260905071305 78 195 0.0 2.0 0.00 0.01 0.00 79 1012.9
20260905071105 78 207 0.0 4.0 0.00 0.01 0.00 79 1012.9
20260905071004 78 208 1.0 4.0 0.00 0.01 0.00 79 1012.9
20260905070904 78 208 1.0 4.0 0.00 0.01 0.00 79 1012.9
20260905070804 78 208 1.0 4.0 0.00 0.01 0.00 79 1012.9
20260905070704 78 208 1.0 4.0 0.00 0.01 0.00 78 1012.9
20260905070604 78 208 1.0 4.0 0.00 0.01 0.00 78 1013.0
20260905070504 78 208 1.0 4.0 0.00 0.01 0.00 78 1013.0
20260905070404 78 209 1.0 4.0 0.00 0.01 0.00 78 1013.0
20260905070304 78 210 1.0 4.0 0.00 0.01 0.00 78 1012.9
20260905070204 78 204 1.0 4.0 0.00 0.01 0.00 78 1013.0
20260905070104 78 202 1.0 4.0 0.00 0.01 0.00 78 1013.0
20260905070005 79 195 1.0 4.0 0.00 0.01 0.00 78 1012.9
20260905065904 79 194 1.0 4.0 0.00 0.01 0.00 78 1012.9
20260905065804 79 194 1.0 4.0 0.00 0.01 0.00 78 1012.9
20260905065704 79 192 2.0 7.0 0.00 0.01 0.00 78 1012.9
20260905065605 79 192 2.0 7.0 0.00 0.01 0.00 78 1012.9
20260905065504 79 190 2.0 7.0 0.00 0.01 0.00 78 1013.0
20260905065404 79 189 3.0 7.0 0.00 0.01 0.00 78 1013.0
20260905065306 79 187 3.0 7.0 0.00 0.01 0.00 78 1013.0
20260905065204 79 186 3.0 7.0 0.00 0.01 0.00 77 1013.0
20260905065104 79 184 3.0 7.0 0.00 0.01 0.00 77 1013.0
20260905065004 79 184 3.0 7.0 0.00 0.01 0.00 77 1013.0
20260905064904 79 183 3.0 7.0 0.00 0.01 0.00 77 1013.0
20260905064804 79 183 3.0 7.0 0.00 0.01 0.00 77 1013.0
20260905064705 79 182 3.0 6.0 0.00 0.01 0.00 77 1013.0
20260905064404 79 179 3.0 7.0 0.00 0.01 0.00 77 1013.0
20260905064304 79 178 3.0 7.0 0.00 0.01 0.00 77 1013.0
20260905064204 79 177 3.0 7.0 0.00 0.01 0.00 77 1013.0
20260905064104 79 175 3.0 8.0 0.00 0.01 0.00 77 1013.0
20260905064005 79 174 3.0 8.0 0.00 0.01 0.00 77 1013.0
20260905063904 79 172 3.0 8.0 0.00 0.01 0.00 77 1013.1
20260905063804 79 171 4.0 8.0 0.00 0.01 0.00 77 1013.0
20260905063704 79 169 4.0 8.0 0.00 0.01 0.00 77 1013.1
20260905063504 79 167 4.0 8.0 0.00 0.01 0.00 77 1013.1
20260905063405 79 167 4.0 8.0 0.00 0.01 0.00 77 1013.0
20260905063304 79 168 4.0 8.0 0.00 0.01 0.00 77 1013.1
20260905063204 79 169 4.0 8.0 0.00 0.01 0.00 77 1013.0
20260905063103 79 171 4.0 8.0 0.00 0.01 0.00 77 1013.0
20260905063004 79 170 4.0 8.0 0.00 0.01 0.00 77 1013.0
20260905062903 79 172 4.0 8.0 0.00 0.01 0.00 77 1013.0
20260905062804 79 173 4.0 10.0 0.00 0.01 0.00 77 1013.1
20260905062704 79 173 4.0 10.0 0.00 0.01 0.00 77 1013.1
20260905062504 79 175 5.0 10.0 0.00 0.01 0.00 77 1013.1
20260905062404 79 176 5.0 10.0 0.00 0.01 0.00 77 1013.1
20260905062305 79 175 5.0 10.0 0.00 0.01 0.00 77 1013.2
20260905062004 79 174 5.0 10.0 0.00 0.01 0.00 77 1013.2
20260905061904 79 173 5.0 10.0 0.00 0.01 0.00 77 1013.2
20260905061803 79 173 5.0 9.0 0.00 0.01 0.00 77 1013.1
20260905061704 79 174 5.0 9.0 0.00 0.01 0.00 77 1013.1
20260905061604 79 174 5.0 8.0 0.00 0.01 0.00 77 1013.1
20260905061504 79 174 5.0 8.0 0.00 0.01 0.00 77 1013.1
20260905061403 79 172 5.0 8.0 0.00 0.01 0.00 77 1013.1
20260905061304 79 174 5.0 8.0 0.00 0.01 0.00 77 1013.2
20260905061204 79 173 5.0 8.0 0.00 0.01 0.00 77 1013.1
20260905061104 79 174 5.0 8.0 0.00 0.01 0.00 77 1013.1
20260905061004 79 173 5.0 8.0 0.00 0.01 0.00 77 1013.1
20260905060804 79 174 4.0 8.0 0.00 0.01 0.00 77 1013.1
20260905060705 79 174 4.0 8.0 0.00 0.01 0.00 77 1013.1
20260905060604 80 174 4.0 8.0 0.00 0.01 0.00 77 1013.2
20260905060504 80 175 4.0 8.0 0.00 0.01 0.00 77 1013.1
20260905060304 80 179 4.0 8.0 0.00 0.01 0.00 77 1013.1
20260905060204 80 182 4.0 8.0 0.00 0.01 0.00 77 1013.2
20260905060103 80 184 4.0 8.0 0.00 0.01 0.00 77 1013.2
20260905060004 80 185 4.0 8.0 0.00 0.01 0.00 77 1013.2
20260905055903 80 186 4.0 8.0 0.00 0.01 0.00 77 1013.2
20260905055603 80 188 4.0 8.0 0.00 0.01 0.00 77 1013.2
20260905055504 80 187 4.0 7.0 0.00 0.01 0.00 77 1013.2
20260905055404 80 186 4.0 7.0 0.00 0.01 0.00 77 1013.2
20260905055306 80 186 4.0 7.0 0.00 0.01 0.00 77 1013.2
20260905055204 80 185 4.0 7.0 0.00 0.01 0.00 77 1013.2
20260905055103 80 185 4.0 7.0 0.00 0.01 0.00 77 1013.2
20260905054904 80 183 4.0 7.0 0.00 0.01 0.00 77 1013.2
20260905054804 80 182 4.0 8.0 0.00 0.01 0.00 77 1013.2
20260905054704 80 178 4.0 9.0 0.00 0.01 0.00 77 1013.2
20260905054604 80 177 4.0 9.0 0.00 0.01 0.00 77 1013.2
20260905054505 80 176 4.0 9.0 0.00 0.01 0.00 77 1013.2
20260905054404 80 176 4.0 9.0 0.00 0.01 0.00 77 1013.2
20260905054304 80 175 4.0 9.0 0.00 0.01 0.00 77 1013.2
20260905054204 80 174 4.0 9.0 0.00 0.01 0.00 77 1013.2
20260905054105 80 173 5.0 9.0 0.00 0.01 0.00 77 1013.2
20260905054004 80 172 5.0 9.0 0.00 0.01 0.00 77 1013.2
20260905053904 80 172 5.0 9.0 0.00 0.01 0.00 77 1013.2
20260905053804 80 171 5.0 9.0 0.00 0.01 0.00 77 1013.1
20260905053704 80 170 5.0 9.0 0.00 0.01 0.00 77 1013.2
20260905053504 80 169 5.0 9.0 0.00 0.01 0.00 77 1013.2
20260905053404 80 168 5.0 9.0 0.00 0.01 0.00 77 1013.2
20260905053303 80 168 4.0 9.0 0.00 0.01 0.00 77 1013.1
20260905053204 80 167 4.0 9.0 0.00 0.01 0.00 77 1013.1
20260905053104 80 167 4.0 8.0 0.00 0.01 0.00 77 1013.1
20260905053004 80 168 4.0 8.0 0.00 0.01 0.00 77 1013.1
20260905052903 80 169 4.0 8.0 0.00 0.01 0.00 77 1013.1
20260905052703 80 169 4.0 8.0 0.00 0.01 0.00 77 1013.1
20260905052604 80 168 4.0 8.0 0.00 0.01 0.00 77 1013.1
20260905052504 80 168 4.0 8.0 0.00 0.01 0.00 77 1013.1
20260905052404 80 168 4.0 8.0 0.00 0.01 0.00 77 1013.1
20260905052204 80 166 4.0 8.0 0.00 0.01 0.00 77 1013.1
20260905052104 80 165 4.0 7.0 0.00 0.01 0.00 77 1013.2
20260905052004 80 163 3.0 7.0 0.00 0.01 0.00 77 1013.2
20260905051904 80 160 3.0 7.0 0.00 0.01 0.00 77 1013.3
20260905051703 80 158 3.0 7.0 0.00 0.01 0.00 77 1013.2
20260905051604 80 157 3.0 7.0 0.00 0.01 0.00 77 1013.3
20260905051504 80 157 3.0 7.0 0.00 0.01 0.00 77 1013.2
20260905051404 80 156 3.0 7.0 0.00 0.01 0.00 77 1013.3
20260905051304 80 154 3.0 7.0 0.00 0.01 0.00 77 1013.3
20260905051204 80 153 3.0 7.0 0.00 0.01 0.00 77 1013.3
20260905051004 80 152 3.0 7.0 0.00 0.01 0.00 77 1013.3
20260905050904 80 153 3.0 7.0 0.00 0.01 0.00 77 1013.3
20260905050704 80 154 3.0 7.0 0.00 0.01 0.00 77 1013.3
20260905050604 80 155 3.0 7.0 0.00 0.01 0.00 77 1013.2
20260905050503 80 155 3.0 7.0 0.00 0.01 0.00 77 1013.3
20260905050303 80 157 3.0 7.0 0.00 0.01 0.00 77 1013.3
20260905050204 80 157 3.0 7.0 0.00 0.01 0.00 77 1013.3
20260905050104 80 158 3.0 7.0 0.00 0.01 0.00 77 1013.2
20260905050005 80 157 4.0 7.0 0.00 0.01 0.00 77 1013.2
20260905045805 80 158 3.0 7.0 0.00 0.01 0.01 77 1013.2
20260905045704 80 157 3.0 7.0 0.00 0.01 0.01 77 1013.3
20260905045604 80 157 4.0 7.0 0.00 0.01 0.01 77 1013.3
20260905045504 80 158 3.0 7.0 0.00 0.01 0.01 77 1013.3
20260905045404 80 157 3.0 7.0 0.00 0.01 0.01 77 1013.3
20260905045305 80 156 3.0 7.0 0.00 0.01 0.01 77 1013.3
20260905045205 80 156 3.0 7.0 0.00 0.01 0.01 77 1013.3
20260905045103 80 156 3.0 7.0 0.00 0.01 0.01 77 1013.3
20260905045004 80 156 3.0 7.0 0.00 0.01 0.01 77 1013.3
20260905044903 80 156 2.0 7.0 0.00 0.01 0.01 77 1013.3
20260905044604 80 153 2.0 7.0 0.00 0.01 0.01 77 1013.3
20260905044504 80 152 2.0 7.0 0.00 0.01 0.01 77 1013.3
20260905044304 80 152 2.0 7.0 0.00 0.01 0.01 77 1013.4
20260905044104 80 147 2.0 4.0 0.00 0.01 0.01 77 1013.4
20260905044004 80 147 2.0 4.0 0.00 0.01 0.01 77 1013.4
20260905043903 80 145 2.0 4.0 0.00 0.01 0.01 77 1013.3
20260905043805 80 143 1.0 4.0 0.00 0.01 0.01 77 1013.3
20260905043704 80 143 1.0 4.0 0.00 0.01 0.01 77 1013.4
20260905043503 80 139 1.0 4.0 0.00 0.01 0.01 77 1013.4
20260905043404 80 136 1.0 4.0 0.00 0.01 0.01 77 1013.4
20260905043303 80 132 1.0 4.0 0.00 0.01 0.01 77 1013.4
20260905043204 80 130 1.0 4.0 0.00 0.01 0.01 77 1013.4
20260905043004 80 128 1.0 4.0 0.00 0.01 0.01 77 1013.3
20260905042904 80 128 1.0 4.0 0.00 0.01 0.01 77 1013.3
20260905042805 80 130 2.0 4.0 0.00 0.01 0.01 76 1013.2
20260905042703 80 130 2.0 4.0 0.00 0.01 0.01 76 1013.2
20260905042604 80 129 2.0 4.0 0.00 0.01 0.01 76 1013.2
20260905042503 80 129 2.0 4.0 0.00 0.01 0.01 76 1013.2
20260905042404 80 130 2.0 4.0 0.00 0.01 0.01 76 1013.2
20260905042306 80 131 2.0 4.0 0.00 0.01 0.01 76 1013.2
20260905042204 80 131 2.0 4.0 0.00 0.01 0.01 76 1013.2
20260905042104 81 131 2.0 4.0 0.00 0.01 0.01 76 1013.2
20260905041903 81 128 2.0 4.0 0.00 0.01 0.01 76 1013.2
20260905041804 81 126 2.0 4.0 0.00 0.01 0.01 76 1013.2
20260905041704 81 124 2.0 4.0 0.00 0.01 0.01 76 1013.2
20260905041604 81 125 2.0 4.0 0.00 0.01 0.01 76 1013.2
20260905041503 81 124 2.0 4.0 0.00 0.01 0.01 76 1013.2
20260905041404 81 123 2.0 4.0 0.00 0.01 0.01 76 1013.3
20260905041303 81 122 2.0 4.0 0.00 0.01 0.01 76 1013.2
20260905041204 81 123 2.0 4.0 0.00 0.01 0.01 76 1013.2
20260905041004 81 125 2.0 4.0 0.00 0.01 0.01 76 1013.3
20260905040904 81 127 2.0 3.0 0.00 0.01 0.01 76 1013.3
20260905040504 81 134 1.0 3.0 0.00 0.01 0.01 75 1013.3
20260905040403 81 137 1.0 3.0 0.00 0.01 0.01 75 1013.2
20260905040304 81 140 1.0 3.0 0.00 0.01 0.01 75 1013.2
20260905040204 81 142 1.0 3.0 0.00 0.01 0.01 75 1013.3
20260905040104 81 144 1.0 3.0 0.00 0.01 0.01 75 1013.3
20260905035904 81 142 1.0 3.0 0.00 0.01 0.01 75 1013.2
20260905035804 81 141 1.0 3.0 0.00 0.01 0.01 75 1013.2
20260905035703 81 142 1.0 3.0 0.00 0.01 0.01 75 1013.2
20260905035604 81 139 1.0 4.0 0.00 0.01 0.01 75 1013.2
20260905035503 81 141 2.0 4.0 0.00 0.01 0.01 75 1013.2
20260905035404 81 141 2.0 6.0 0.00 0.01 0.01 74 1013.2
20260905035306 82 141 2.0 6.0 0.00 0.01 0.01 74 1013.2
20260905035204 82 139 2.0 6.0 0.00 0.01 0.01 74 1013.2
20260905035104 82 138 2.0 6.0 0.00 0.01 0.01 74 1013.2
20260905035004 82 138 2.0 6.0 0.00 0.01 0.01 74 1013.3
20260905034903 82 138 3.0 6.0 0.00 0.01 0.01 74 1013.2
20260905034804 82 138 3.0 6.0 0.00 0.01 0.01 74 1013.2
20260905034703 82 138 3.0 6.0 0.00 0.01 0.01 74 1013.2
20260905034604 82 139 3.0 6.0 0.00 0.01 0.01 74 1013.2
20260905034504 82 139 3.0 6.0 0.00 0.01 0.01 74 1013.2
20260905034404 82 141 3.0 6.0 0.00 0.01 0.01 74 1013.2
20260905034303 82 143 3.0 7.0 0.00 0.01 0.01 74 1013.2
20260905034204 82 144 3.0 7.0 0.00 0.01 0.01 74 1013.3
20260905034104 82 145 3.0 7.0 0.00 0.01 0.01 74 1013.2
20260905034004 82 145 3.0 7.0 0.00 0.01 0.01 74 1013.2
20260905033904 82 145 3.0 7.0 0.00 0.01 0.01 73 1013.2
20260905033803 82 145 3.0 7.0 0.00 0.01 0.01 73 1013.2
20260905033704 82 145 3.0 7.0 0.00 0.01 0.01 73 1013.2
20260905033603 82 145 3.0 7.0 0.00 0.01 0.01 73 1013.2
20260905033504 82 144 3.0 7.0 0.00 0.01 0.01 73 1013.1
20260905033204 82 139 2.0 7.0 0.00 0.01 0.01 73 1013.1
20260905033104 82 137 2.0 7.0 0.00 0.01 0.01 73 1013.1
20260905032904 82 136 2.0 6.0 0.00 0.01 0.01 73 1013.2
20260905032804 82 136 2.0 6.0 0.00 0.01 0.01 73 1013.1
20260905032704 82 133 2.0 7.0 0.00 0.01 0.01 73 1013.2
20260905032604 82 134 2.0 7.0 0.00 0.01 0.01 73 1013.1
20260905032503 82 135 3.0 7.0 0.00 0.01 0.01 73 1013.1
20260905032204 82 135 3.0 7.0 0.00 0.01 0.01 73 1013.1
20260905032105 82 134 3.0 7.0 0.00 0.01 0.01 73 1013.1
20260905032003 82 134 4.0 7.0 0.00 0.01 0.01 73 1013.1
20260905031904 82 133 4.0 7.0 0.00 0.01 0.01 73 1013.1
20260905031803 82 133 4.0 8.0 0.00 0.01 0.01 73 1013.1
20260905031704 82 132 4.0 8.0 0.00 0.01 0.01 73 1013.0
20260905031603 82 133 4.0 8.0 0.00 0.01 0.01 73 1013.0
20260905031504 82 133 4.0 8.0 0.00 0.01 0.01 73 1013.0
20260905031403 82 132 4.0 8.0 0.00 0.01 0.01 72 1012.9
20260905031203 82 131 3.0 8.0 0.00 0.01 0.01 72 1013.0
20260905031104 82 132 4.0 8.0 0.00 0.01 0.01 72 1013.0
20260905031003 82 132 4.0 8.0 0.00 0.01 0.01 72 1013.1
20260905030804 82 132 4.0 8.0 0.00 0.01 0.01 72 1013.1
20260905030704 82 130 4.0 8.0 0.00 0.01 0.01 72 1013.1
20260905030603 82 130 4.0 7.0 0.00 0.01 0.01 72 1013.1
20260905030504 82 130 4.0 7.0 0.00 0.01 0.01 72 1013.1
20260905030403 82 129 4.0 7.0 0.00 0.01 0.01 72 1013.1
20260905030304 82 129 4.0 7.0 0.00 0.01 0.01 72 1013.1
20260905030004 83 130 4.0 7.0 0.00 0.01 0.01 71 1013.1
20260905025903 83 130 4.0 7.0 0.00 0.01 0.01 71 1013.1
20260905025804 83 130 4.0 8.0 0.00 0.01 0.01 71 1013.1
20260905025703 83 131 4.0 8.0 0.00 0.01 0.01 71 1013.1
20260905025604 83 129 4.0 8.0 0.00 0.01 0.01 71 1013.1
20260905025504 83 128 4.0 8.0 0.00 0.01 0.01 71 1013.1
20260905025404 83 127 4.0 8.0 0.00 0.01 0.01 71 1013.0
20260905025306 83 126 4.0 8.0 0.00 0.01 0.01 71 1013.1
20260905025103 83 125 4.0 8.0 0.00 0.01 0.01 70 1013.0
20260905025004 83 125 4.0 8.0 0.00 0.01 0.01 70 1013.0
20260905024903 83 123 4.0 8.0 0.00 0.01 0.01 70 1013.0
20260905024704 83 122 4.0 9.0 0.00 0.01 0.01 69 1013.0
20260905024603 83 122 4.0 9.0 0.00 0.01 0.01 69 1012.9
20260905024504 83 122 5.0 9.0 0.00 0.01 0.01 69 1012.9
20260905024403 83 123 4.0 9.0 0.00 0.01 0.01 69 1013.0
20260905024304 83 123 4.0 9.0 0.00 0.01 0.01 69 1012.9
20260905024104 83 123 4.0 9.0 0.00 0.01 0.01 69 1012.9
20260905024003 83 123 4.0 9.0 0.00 0.01 0.01 69 1012.9
20260905023904 83 124 4.0 9.0 0.00 0.01 0.01 69 1012.8
20260905023803 83 124 4.0 8.0 0.00 0.01 0.01 68 1012.8
20260905023704 83 124 4.0 8.0 0.00 0.01 0.01 68 1012.8
20260905023603 83 124 4.0 8.0 0.00 0.01 0.01 68 1012.8
20260905023504 83 125 4.0 8.0 0.00 0.01 0.01 68 1012.8
20260905023403 83 125 4.0 8.0 0.00 0.01 0.01 68 1012.8
20260905023304 83 125 3.0 8.0 0.00 0.01 0.01 68 1012.8
20260905023205 83 124 3.0 8.0 0.00 0.01 0.01 68 1012.7
20260905023106 83 124 3.0 8.0 0.00 0.01 0.01 68 1012.7
20260905023005 83 125 3.0 8.0 0.00 0.01 0.01 68 1012.7
20260905022906 83 125 3.0 7.0 0.00 0.01 0.01 68 1012.7
20260905022805 83 124 3.0 7.0 0.00 0.01 0.01 67 1012.7
20260905022706 83 125 3.0 7.0 0.00 0.01 0.01 67 1012.6
20260905022506 83 126 2.0 5.0 0.00 0.01 0.01 67 1012.6
20260905022405 83 126 2.0 4.0 0.00 0.01 0.01 67 1012.6
20260905022206 83 127 3.0 4.0 0.00 0.01 0.01 67 1012.6
20260905022105 83 127 3.0 4.0 0.00 0.01 0.01 67 1012.6
20260905022006 83 127 2.0 4.0 0.00 0.01 0.01 67 1012.5
20260905021905 84 127 2.0 4.0 0.00 0.01 0.01 67 1012.5
20260905021806 84 130 3.0 4.0 0.00 0.01 0.01 66 1012.5
20260905021705 84 131 3.0 7.0 0.00 0.01 0.01 66 1012.5
20260905021606 84 130 2.0 7.0 0.00 0.01 0.01 66 1012.5
20260905021505 84 130 2.0 7.0 0.00 0.01 0.01 66 1012.4
20260905021406 84 130 2.0 7.0 0.00 0.01 0.01 66 1012.4
20260905021305 84 132 2.0 7.0 0.00 0.01 0.01 66 1012.5
20260905021206 84 131 2.0 7.0 0.00 0.01 0.01 66 1012.4
20260905021106 84 132 2.0 7.0 0.00 0.01 0.01 66 1012.4
20260905021006 84 133 2.0 7.0 0.00 0.01 0.01 66 1012.5
20260905020905 84 134 2.0 7.0 0.00 0.01 0.01 66 1012.4
20260905020806 84 131 2.0 7.0 0.00 0.01 0.01 66 1012.4
20260905020705 84 131 2.0 4.0 0.00 0.01 0.01 66 1012.4
20260905020606 84 131 2.0 4.0 0.00 0.01 0.01 66 1012.4
20260905020505 84 131 2.0 4.0 0.00 0.01 0.01 66 1012.4
20260905020205 84 134 2.0 4.0 0.00 0.01 0.01 65 1012.3
20260905020106 84 134 2.0 4.0 0.00 0.01 0.01 65 1012.3
20260905015906 84 133 2.0 5.0 0.00 0.01 0.01 65 1012.2
20260905015806 84 133 2.0 5.0 0.00 0.01 0.01 65 1012.1
20260905015705 84 132 2.0 5.0 0.00 0.01 0.01 65 1012.1
20260905015605 84 132 3.0 6.0 0.00 0.01 0.01 65 1012.2
20260905015506 84 134 3.0 6.0 0.00 0.01 0.01 65 1012.2
20260905015406 84 133 3.0 6.0 0.00 0.01 0.01 65 1012.2
20260905015307 84 133 3.0 6.0 0.00 0.01 0.01 65 1012.1
20260905015206 84 132 3.0 6.0 0.00 0.01 0.01 65 1012.1
20260905015106 84 132 3.0 6.0 0.00 0.01 0.01 65 1012.1
20260905015005 84 131 3.0 6.0 0.00 0.01 0.01 65 1012.1
20260905014905 85 132 3.0 6.0 0.00 0.01 0.01 65 1012.2
20260905014806 85 134 3.0 6.0 0.00 0.01 0.01 64 1012.1
20260905014705 85 134 3.0 6.0 0.00 0.01 0.01 64 1012.2
20260905014505 85 133 3.0 9.0 0.00 0.01 0.01 64 1012.1
20260905014406 85 133 4.0 9.0 0.00 0.01 0.01 64 1012.1
20260905014306 85 133 4.0 9.0 0.00 0.01 0.01 64 1012.1
20260905014205 85 132 4.0 9.0 0.00 0.01 0.01 64 1012.1
20260905014005 85 133 4.0 9.0 0.00 0.01 0.01 64 1012.0
20260905013906 85 132 4.0 9.0 0.00 0.01 0.01 64 1012.0
20260905013805 85 132 4.0 9.0 0.00 0.01 0.01 64 1012.0
20260905013706 85 132 4.0 9.0 0.00 0.01 0.01 64 1012.0
20260905013605 85 133 4.0 9.0 0.00 0.01 0.01 64 1012.0
20260905013506 85 132 4.0 9.0 0.00 0.01 0.01 64 1012.0
20260905013405 85 132 4.0 9.0 0.00 0.01 0.01 64 1012.0
20260905013306 85 132 4.0 9.0 0.00 0.01 0.01 63 1012.0
20260905013106 85 131 4.0 9.0 0.00 0.01 0.01 63 1012.0
20260905012906 85 131 4.0 9.0 0.00 0.01 0.01 63 1012.0
20260905012806 85 131 5.0 9.0 0.00 0.01 0.01 63 1011.9
20260905012605 85 131 5.0 9.0 0.00 0.01 0.01 62 1011.9
20260905012406 86 134 5.0 9.0 0.00 0.01 0.01 62 1011.9
20260905012306 86 136 5.0 9.0 0.00 0.01 0.01 62 1011.9
20260905012206 86 135 5.0 9.0 0.00 0.01 0.01 62 1011.9
20260905012105 86 136 5.0 9.0 0.00 0.01 0.01 62 1011.8
20260905011805 86 139 5.0 9.0 0.00 0.01 0.01 62 1011.8
20260905011605 86 139 4.0 9.0 0.00 0.01 0.01 62 1011.7
20260905011307 86 138 4.0 9.0 0.00 0.01 0.01 62 1011.7
20260905011205 86 140 4.0 8.0 0.00 0.01 0.01 62 1011.7
20260905011005 86 143 4.0 8.0 0.00 0.01 0.01 62 1011.8
20260905010906 86 144 4.0 8.0 0.00 0.01 0.01 62 1011.8
20260905010805 86 145 4.0 9.0 0.00 0.01 0.01 62 1011.8
20260905010706 86 147 4.0 9.0 0.00 0.01 0.01 62 1011.8
20260905010605 86 145 5.0 12.0 0.00 0.01 0.01 62 1011.8
20260905010506 86 146 5.0 12.0 0.00 0.01 0.01 62 1011.9
20260905010405 86 146 5.0 12.0 0.00 0.01 0.01 61 1011.7
20260905010306 86 145 5.0 12.0 0.00 0.01 0.01 61 1011.7
20260905010206 86 144 5.0 12.0 0.00 0.01 0.01 60 1011.7
20260905010105 86 143 6.0 12.0 0.00 0.01 0.01 60 1011.7
20260905010006 86 145 6.0 15.0 0.00 0.01 0.01 60 1011.7
20260905005905 86 143 6.0 15.0 0.00 0.01 0.01 60 1011.7
20260905005807 86 141 6.0 15.0 0.00 0.01 0.01 60 1011.7
20260905005705 86 140 6.0 15.0 0.00 0.01 0.01 60 1011.6
20260905005606 86 142 6.0 15.0 0.00 0.01 0.01 60 1011.6
20260905005406 86 140 6.0 15.0 0.00 0.01 0.01 60 1011.6
20260905005307 86 140 6.0 15.0 0.00 0.01 0.01 60 1011.6
20260905005106 87 141 6.0 15.0 0.00 0.01 0.01 60 1011.6
20260905005005 87 140 6.0 12.0 0.00 0.01 0.01 60 1011.6
20260905004906 87 142 6.0 12.0 0.00 0.01 0.01 60 1011.6
20260905004805 87 143 6.0 12.0 0.00 0.01 0.01 60 1011.6
20260905004706 87 145 6.0 12.0 0.00 0.01 0.01 60 1011.6
20260905004506 87 146 6.0 12.0 0.00 0.01 0.01 60 1011.6
20260905004405 87 147 7.0 12.0 0.00 0.01 0.01 60 1011.5
20260905004306 87 149 7.0 12.0 0.00 0.01 0.01 60 1011.5
20260905004205 87 150 7.0 12.0 0.00 0.01 0.01 60 1011.6
20260905004106 87 149 7.0 12.0 0.00 0.01 0.01 60 1011.5
20260905004005 87 149 7.0 13.0 0.00 0.01 0.01 60 1011.5
20260905003906 87 149 8.0 13.0 0.00 0.01 0.01 59 1011.5
20260905003805 87 149 8.0 15.0 0.00 0.01 0.01 59 1011.5
20260905003605 88 149 8.0 15.0 0.00 0.01 0.01 59 1011.5
20260905003506 88 148 8.0 15.0 0.00 0.01 0.01 59 1011.5
20260905003405 88 149 8.0 15.0 0.00 0.01 0.01 59 1011.6
20260905003205 88 147 8.0 15.0 0.00 0.01 0.01 59 1011.6
20260905003107 88 146 8.0 15.0 0.00 0.01 0.01 59 1011.6
20260905003005 88 145 7.0 15.0 0.00 0.01 0.01 59 1011.6
20260905002905 88 143 7.0 15.0 0.00 0.01 0.01 58 1011.5
20260905002805 88 142 7.0 15.0 0.00 0.01 0.01 58 1011.5
20260905002705 88 143 8.0 15.0 0.00 0.01 0.01 58 1011.5
20260905002505 88 141 8.0 17.0 0.00 0.01 0.01 58 1011.5
20260905002406 88 140 9.0 17.0 0.00 0.01 0.01 58 1011.4
20260905002306 88 139 9.0 19.0 0.00 0.01 0.01 58 1011.4
20260905002206 88 136 9.0 19.0 0.00 0.01 0.01 58 1011.4
20260905002105 88 138 9.0 19.0 0.00 0.01 0.01 57 1011.3
20260905002006 88 137 9.0 19.0 0.00 0.01 0.01 57 1011.3
20260905001905 88 137 10.0 19.0 0.00 0.01 0.01 57 1011.3
20260905001806 89 137 10.0 19.0 0.00 0.01 0.01 57 1011.3
20260905001706 89 136 10.0 19.0 0.00 0.01 0.01 57 1011.3
20260905001606 89 133 10.0 19.0 0.00 0.01 0.01 57 1011.3
20260905001505 89 133 10.0 19.0 0.00 0.01 0.01 55 1011.2
20260905001405 89 132 10.0 19.0 0.00 0.01 0.01 55 1011.3
20260905001306 89 132 11.0 19.0 0.00 0.01 0.01 55 1011.2
20260905001206 89 130 11.0 19.0 0.00 0.01 0.01 55 1011.2
20260905001105 89 127 11.0 19.0 0.00 0.01 0.01 55 1011.2
20260905001006 89 127 12.0 19.0 0.00 0.01 0.01 55 1011.2
20260905000905 90 126 11.0 19.0 0.00 0.01 0.01 55 1011.2
20260905000805 90 125 11.0 19.0 0.00 0.01 0.01 54 1011.2
20260905000706 90 125 11.0 19.0 0.00 0.01 0.01 54 1011.2
20260905000406 90 123 12.0 19.0 0.00 0.01 0.01 52 1011.1
20260905000305 90 121 11.0 19.0 0.00 0.01 0.01 51 1011.1
20260905000206 90 120 11.0 19.0 0.00 0.01 0.01 49 1011.1
20260905000105 90 120 11.0 19.0 0.00 0.01 0.01 49 1011.1
20260904235905 91 118 11.0 18.0 0.00 0.01 0.01 48 1011.0
20260904235805 91 115 10.0 18.0 0.00 0.01 0.01 48 1011.0
20260904235706 91 113 10.0 17.0 0.00 0.01 0.01 48 1011.0
20260904235605 91 114 10.0 17.0 0.00 0.01 0.01 48 1011.0
20260904235506 91 116 9.0 17.0 0.00 0.01 0.01 48 1011.0
20260904235406 91 120 9.0 17.0 0.00 0.01 0.01 48 1010.9
20260904235306 91 127 9.0 17.0 0.00 0.01 0.01 48 1010.9
20260904235206 92 130 9.0 17.0 0.00 0.01 0.01 48 1010.9
20260904235106 92 132 9.0 17.0 0.00 0.01 0.01 48 1010.9
20260904235005 92 133 9.0 17.0 0.00 0.01 0.01 48 1010.8
20260904234906 92 135 9.0 17.0 0.00 0.01 0.01 47 1010.8
20260904234805 92 139 9.0 16.0 0.00 0.01 0.01 47 1010.8
20260904234605 92 139 8.0 16.0 0.00 0.01 0.01 47 1010.8
20260904234405 93 134 7.0 16.0 0.00 0.01 0.01 47 1010.8
20260904234305 93 133 7.0 16.0 0.00 0.01 0.01 47 1010.9
20260904234205 93 133 8.0 16.0 0.00 0.01 0.01 47 1010.9
20260904234106 93 136 8.0 16.0 0.00 0.01 0.01 47 1010.8
20260904234005 93 138 7.0 16.0 0.00 0.01 0.01 46 1010.8
20260904233905 93 141 7.0 15.0 0.00 0.01 0.01 46 1010.8
20260904233806 93 145 7.0 15.0 0.00 0.01 0.01 47 1010.9
20260904233705 93 146 7.0 15.0 0.00 0.01 0.01 47 1010.8
20260904233606 93 149 7.0 15.0 0.00 0.01 0.01 47 1010.8
20260904233505 93 153 8.0 15.0 0.00 0.01 0.01 47 1010.8
20260904233405 93 154 8.0 15.0 0.00 0.01 0.01 47 1010.8
20260904233305 93 153 8.0 15.0 0.00 0.01 0.01 47 1010.8
20260904233105 93 147 8.0 15.0 0.00 0.01 0.01 47 1010.8
20260904233006 93 145 8.0 15.0 0.00 0.01 0.01 47 1010.8
20260904232905 93 143 8.0 15.0 0.00 0.01 0.01 47 1010.8
20260904232805 92 140 8.0 15.0 0.00 0.01 0.01 47 1010.8
20260904232706 92 139 8.0 15.0 0.00 0.01 0.01 47 1010.8
20260904232606 92 138 8.0 15.0 0.00 0.01 0.01 47 1010.8
20260904232405 92 132 8.0 15.0 0.00 0.01 0.01 46 1010.8
20260904232307 92 133 7.0 15.0 0.00 0.01 0.01 46 1010.8
20260904232205 93 133 7.0 14.0 0.00 0.01 0.01 46 1010.8
20260904232105 93 133 7.0 14.0 0.00 0.01 0.01 46 1010.8
20260904232005 93 134 7.0 14.0 0.00 0.01 0.01 46 1010.8
20260904231806 93 134 7.0 14.0 0.00 0.01 0.01 45 1010.8
20260904231705 93 134 8.0 14.0 0.00 0.01 0.01 45 1010.8
20260904231506 93 134 7.0 14.0 0.00 0.01 0.01 44 1010.8
20260904231405 94 132 7.0 14.0 0.00 0.01 0.01 44 1010.8
20260904231205 94 130 7.0 14.0 0.00 0.01 0.01 44 1010.8
20260904231107 94 129 8.0 14.0 0.00 0.01 0.01 44 1010.8
20260904231006 94 128 8.0 16.0 0.00 0.01 0.01 44 1010.8
20260904230905 94 128 8.0 16.0 0.00 0.01 0.01 44 1010.9
20260904230806 94 127 8.0 16.0 0.00 0.01 0.01 44 1010.9
20260904230705 94 123 8.0 16.0 0.00 0.01 0.01 43 1010.8
20260904230306 94 120 8.0 16.0 0.00 0.01 0.01 43 1010.8
20260904230205 94 118 8.0 16.0 0.00 0.01 0.01 43 1010.8
20260904230105 95 119 8.0 16.0 0.00 0.01 0.01 44 1010.8
20260904230005 95 116 7.0 13.0 0.00 0.01 0.01 44 1010.8
20260904225905 94 114 7.0 13.0 0.00 0.01 0.01 44 1010.8
20260904225805 94 115 7.0 13.0 0.00 0.01 0.01 44 1010.8
20260904225706 94 119 8.0 13.0 0.00 0.01 0.01 44 1010.8
20260904225506 94 122 9.0 17.0 0.00 0.01 0.01 44 1010.8
20260904225306 95 121 9.0 17.0 0.00 0.01 0.01 44 1010.8
20260904225206 95 122 9.0 17.0 0.00 0.01 0.01 44 1010.9
20260904225105 95 120 9.0 17.0 0.00 0.01 0.01 44 1010.8
20260904225006 95 119 10.0 17.0 0.00 0.01 0.01 44 1010.8
20260904224906 94 118 10.0 17.0 0.00 0.01 0.01 44 1010.9
20260904224805 95 117 10.0 17.0 0.00 0.01 0.01 43 1010.9
20260904224705 95 116 10.0 17.0 0.00 0.01 0.01 43 1010.9
20260904224605 95 118 10.0 17.0 0.00 0.01 0.01 43 1010.9
20260904224505 95 119 10.0 17.0 0.00 0.01 0.01 43 1010.8
20260904224405 95 119 9.0 17.0 0.00 0.01 0.01 43 1010.9
20260904224305 95 118 9.0 17.0 0.00 0.01 0.01 42 1010.8
20260904224206 95 118 9.0 17.0 0.00 0.01 0.01 42 1010.8
20260904224105 95 119 9.0 17.0 0.00 0.01 0.01 41 1010.7
20260904223905 95 128 8.0 14.0 0.00 0.01 0.01 41 1010.7
20260904223805 95 131 7.0 14.0 0.00 0.01 0.01 41 1010.7
20260904223705 95 133 7.0 14.0 0.00 0.01 0.01 41 1010.7
20260904223605 95 134 6.0 14.0 0.00 0.01 0.01 41 1010.8
20260904223206 96 146 5.0 14.0 0.00 0.01 0.01 42 1010.8
20260904223105 96 153 5.0 12.0 0.00 0.01 0.01 42 1010.8
20260904223006 96 156 5.0 10.0 0.00 0.01 0.01 41 1010.8
20260904222905 96 155 5.0 10.0 0.00 0.01 0.01 42 1010.9
20260904222705 96 155 6.0 14.0 0.00 0.01 0.01 41 1010.9
20260904222605 96 158 6.0 14.0 0.00 0.01 0.01 41 1010.9
20260904222505 96 159 6.0 14.0 0.00 0.01 0.01 41 1010.9
20260904222405 96 158 7.0 14.0 0.00 0.01 0.01 41 1010.9
20260904222306 96 154 7.0 14.0 0.00 0.01 0.01 41 1011.0
20260904222205 96 148 7.0 14.0 0.00 0.01 0.01 41 1011.0
20260904222005 96 145 6.0 14.0 0.00 0.01 0.01 41 1010.9
20260904221905 96 142 6.0 14.0 0.00 0.01 0.01 41 1011.0
20260904221805 96 143 6.0 14.0 0.00 0.01 0.01 41 1010.9
20260904221705 96 140 6.0 13.0 0.00 0.01 0.01 41 1010.9
20260904221606 96 137 5.0 12.0 0.00 0.01 0.01 41 1010.9
20260904221505 96 138 6.0 12.0 0.00 0.01 0.01 41 1010.9
20260904221407 96 142 5.0 12.0 0.00 0.01 0.01 40 1010.9
20260904221306 96 148 6.0 11.0 0.00 0.01 0.01 41 1010.9
20260904221205 96 156 6.0 11.0 0.00 0.01 0.01 40 1010.9
20260904221105 96 159 6.0 11.0 0.00 0.01 0.01 42 1011.0
20260904220705 95 150 6.0 11.0 0.00 0.01 0.01 42 1010.9
20260904220606 95 144 6.0 11.0 0.00 0.01 0.01 42 1011.0
20260904220505 95 142 6.0 11.0 0.00 0.01 0.01 42 1011.0
20260904220405 95 139 6.0 11.0 0.00 0.01 0.01 43 1011.1
20260904220306 95 141 6.0 11.0 0.00 0.01 0.01 43 1011.1
20260904220205 95 141 6.0 11.0 0.00 0.01 0.01 43 1011.1
20260904220106 95 145 7.0 14.0 0.00 0.01 0.01 43 1011.1
20260904220006 95 150 7.0 14.0 0.00 0.01 0.01 43 1011.2
20260904215905 95 157 7.0 14.0 0.00 0.01 0.01 42 1011.1
20260904215806 95 157 7.0 14.0 0.00 0.01 0.01 43 1011.1
20260904215705 95 165 7.0 14.0 0.00 0.01 0.01 43 1011.1
20260904215605 95 173 7.0 14.0 0.00 0.01 0.01 42 1011.1
20260904215505 95 175 7.0 14.0 0.00 0.01 0.01 42 1011.2
20260904215405 96 181 7.0 14.0 0.00 0.01 0.01 41 1011.1
20260904215205 96 178 7.0 14.0 0.00 0.01 0.01 40 1011.2
20260904215005 96 183 7.0 13.0 0.00 0.01 0.01 42 1011.3
20260904214905 96 183 7.0 13.0 0.00 0.01 0.01 42 1011.2
20260904214806 96 186 7.0 13.0 0.00 0.01 0.01 42 1011.3
20260904214705 95 186 7.0 13.0 0.00 0.01 0.01 42 1011.3
20260904214605 95 185 7.0 13.0 0.00 0.01 0.01 42 1011.3
20260904214206 95 188 8.0 14.0 0.00 0.01 0.01 41 1011.3
20260904214106 95 188 8.0 14.0 0.00 0.01 0.01 40 1011.4
20260904213905 96 183 8.0 14.0 0.00 0.01 0.01 39 1011.4
20260904213805 96 181 8.0 14.0 0.00 0.01 0.01 38 1011.4
20260904213705 97 183 7.0 14.0 0.00 0.01 0.01 38 1011.4
20260904213605 97 182 7.0 14.0 0.00 0.01 0.01 38 1011.5
20260904213505 97 182 7.0 14.0 0.00 0.01 0.01 38 1011.4
20260904213304 97 183 7.0 15.0 0.00 0.01 0.01 38 1011.5
20260904213206 97 183 7.0 15.0 0.00 0.01 0.01 38 1011.5
20260904213105 97 179 7.0 15.0 0.00 0.01 0.01 39 1011.5
20260904212906 96 181 8.0 15.0 0.00 0.01 0.01 40 1011.6
20260904212705 97 175 8.0 15.0 0.00 0.01 0.01 39 1011.6
20260904212605 97 173 8.0 15.0 0.00 0.01 0.01 40 1011.7
20260904212505 97 171 7.0 15.0 0.00 0.01 0.01 40 1011.6
20260904212405 97 170 7.0 15.0 0.00 0.01 0.01 40 1011.7
20260904212306 97 170 7.0 14.0 0.00 0.01 0.01 40 1011.7
20260904212205 97 169 7.0 14.0 0.00 0.01 0.01 40 1011.7
20260904212106 97 171 7.0 14.0 0.00 0.01 0.01 40 1011.7
20260904212006 96 172 7.0 14.0 0.00 0.01 0.01 40 1011.8
20260904211905 96 172 7.0 14.0 0.00 0.01 0.01 40 1011.7
20260904211806 96 173 7.0 11.0 0.00 0.01 0.01 40 1011.7
20260904211705 97 174 7.0 11.0 0.00 0.01 0.01 40 1011.7
20260904211606 97 176 7.0 11.0 0.00 0.01 0.01 40 1011.7
20260904211505 96 175 7.0 11.0 0.00 0.01 0.01 40 1011.8
20260904211405 96 175 7.0 11.0 0.00 0.01 0.01 40 1011.7
20260904211205 96 172 7.0 12.0 0.00 0.01 0.01 40 1011.7
20260904211105 96 171 7.0 12.0 0.00 0.01 0.01 40 1011.7
20260904211005 96 170 7.0 13.0 0.00 0.01 0.01 39 1011.7
20260904210905 96 172 7.0 13.0 0.00 0.01 0.01 39 1011.7
20260904210706 96 178 7.0 13.0 0.00 0.01 0.01 40 1011.8
20260904210606 96 182 8.0 14.0 0.00 0.01 0.01 39 1011.7
20260904210505 96 182 8.0 14.0 0.00 0.01 0.01 39 1011.8
20260904210405 96 179 8.0 14.0 0.00 0.01 0.01 39 1011.8
20260904210305 96 181 8.0 14.0 0.00 0.01 0.01 40 1011.8
20260904210205 96 181 8.0 14.0 0.00 0.01 0.01 40 1011.9
20260904210006 96 185 8.0 14.0 0.00 0.01 0.01 40 1011.8
20260904205905 96 185 7.0 14.0 0.00 0.01 0.01 40 1011.9
20260904205806 96 181 7.0 14.0 0.00 0.01 0.01 40 1011.8
20260904205705 96 176 6.0 14.0 0.00 0.01 0.01 40 1011.8
20260904205605 96 171 6.0 14.0 0.00 0.01 0.01 40 1011.8
20260904205505 96 170 6.0 14.0 0.00 0.01 0.01 40 1011.8
20260904205405 96 169 6.0 14.0 0.00 0.01 0.01 40 1011.8
20260904205306 96 167 6.0 13.0 0.00 0.01 0.01 40 1011.8
20260904205205 96 165 5.0 13.0 0.00 0.01 0.01 41 1011.8
20260904205105 96 162 5.0 13.0 0.00 0.01 0.01 41 1011.8
20260904205005 96 158 6.0 13.0 0.00 0.01 0.01 41 1011.8
20260904204904 96 158 6.0 13.0 0.00 0.01 0.01 41 1011.8
20260904204705 96 160 6.0 13.0 0.00 0.01 0.01 41 1011.9
20260904204605 96 159 6.0 13.0 0.00 0.01 0.01 42 1011.9
20260904204505 96 156 6.0 12.0 0.00 0.01 0.01 42 1011.9
20260904204405 96 157 6.0 12.0 0.00 0.01 0.01 42 1011.9
20260904204305 96 156 6.0 12.0 0.00 0.01 0.01 42 1012.0
20260904204206 96 156 6.0 12.0 0.00 0.01 0.01 42 1012.0
20260904204105 96 153 6.0 12.0 0.00 0.01 0.01 42 1012.0
20260904204006 96 153 6.0 12.0 0.00 0.01 0.01 42 1012.1
20260904203905 96 151 6.0 12.0 0.00 0.01 0.01 42 1012.1
20260904203805 96 154 6.0 12.0 0.00 0.01 0.01 43 1012.1
20260904203705 96 157 6.0 12.0 0.00 0.01 0.01 44 1012.1
20260904203605 95 161 6.0 12.0 0.00 0.01 0.01 44 1012.1
20260904203507 95 163 7.0 12.0 0.00 0.01 0.01 44 1012.1
20260904203405 96 159 7.0 12.0 0.00 0.01 0.01 44 1012.1
20260904203305 95 161 7.0 12.0 0.00 0.01 0.01 44 1012.1
20260904203205 95 163 7.0 12.0 0.00 0.01 0.01 44 1012.2
20260904203005 95 165 7.0 11.0 0.00 0.01 0.01 44 1012.2
20260904202904 95 167 7.0 11.0 0.00 0.01 0.01 45 1012.2
20260904202805 94 166 8.0 13.0 0.00 0.01 0.01 45 1012.2
20260904202705 94 166 8.0 16.0 0.00 0.01 0.01 46 1012.3
20260904202605 94 166 8.0 16.0 0.00 0.01 0.01 47 1012.2
20260904202505 93 166 8.0 16.0 0.00 0.01 0.01 47 1012.2
20260904202405 93 167 8.0 16.0 0.00 0.01 0.01 48 1012.2
20260904202205 92 163 8.0 16.0 0.00 0.01 0.01 49 1012.2
20260904202105 92 163 8.0 16.0 0.00 0.01 0.01 49 1012.2
20260904202006 92 162 8.0 16.0 0.00 0.01 0.01 48 1012.2
20260904201905 92 161 8.0 16.0 0.00 0.01 0.01 48 1012.2
20260904201805 92 160 8.0 16.0 0.00 0.01 0.01 48 1012.2
20260904201605 92 156 8.0 14.0 0.00 0.01 0.01 48 1012.2
20260904201505 92 154 8.0 14.0 0.00 0.01 0.01 48 1012.2
20260904201405 92 157 8.0 17.0 0.00 0.01 0.01 48 1012.3
20260904201305 92 160 8.0 17.0 0.00 0.01 0.01 48 1012.3
20260904201205 93 162 8.0 17.0 0.00 0.01 0.01 48 1012.3
20260904201105 93 163 8.0 17.0 0.00 0.01 0.01 48 1012.3
20260904201005 93 164 8.0 17.0 0.00 0.01 0.01 48 1012.3
20260904200805 93 164 7.0 17.0 0.00 0.01 0.01 48 1012.4
20260904200706 93 164 8.0 17.0 0.00 0.01 0.01 47 1012.3
20260904200605 93 166 8.0 17.0 0.00 0.01 0.01 46 1012.3
20260904200406 94 162 7.0 14.0 0.00 0.01 0.01 46 1012.3
20260904200206 94 158 8.0 14.0 0.00 0.01 0.01 46 1012.3
20260904200105 94 159 7.0 14.0 0.00 0.01 0.01 46 1012.3
20260904200005 95 162 8.0 14.0 0.00 0.01 0.01 46 1012.3
20260904195906 95 164 7.0 14.0 0.00 0.01 0.01 45 1012.2
20260904195805 95 167 7.0 14.0 0.00 0.01 0.01 45 1012.4
20260904195705 96 168 6.0 14.0 0.00 0.01 0.01 45 1012.4
20260904195505 96 173 6.0 13.0 0.00 0.01 0.01 45 1012.4
20260904195405 96 179 6.0 12.0 0.00 0.01 0.01 44 1012.3
20260904195306 96 185 5.0 11.0 0.00 0.01 0.01 43 1012.4
20260904195206 96 192 5.0 10.0 0.00 0.01 0.01 44 1012.4
20260904195105 96 193 5.0 10.0 0.00 0.01 0.01 44 1012.4
20260904195005 96 189 5.0 10.0 0.00 0.01 0.01 44 1012.4
20260904194905 95 185 5.0 10.0 0.00 0.01 0.01 44 1012.5
20260904194806 95 182 5.0 12.0 0.00 0.01 0.01 44 1012.5
20260904194504 94 178 5.0 12.0 0.00 0.01 0.01 44 1012.6
20260904194405 93 173 5.0 12.0 0.00 0.01 0.01 43 1012.6
20260904194304 93 167 5.0 12.0 0.00 0.01 0.01 45 1012.7
20260904194205 93 163 5.0 12.0 0.00 0.01 0.01 45 1012.7
20260904194107 93 163 5.0 12.0 0.00 0.01 0.01 45 1012.7
20260904194005 93 165 5.0 12.0 0.00 0.01 0.01 45 1012.7
20260904193905 93 169 4.0 12.0 0.00 0.01 0.01 45 1012.7
20260904193706 93 167 5.0 9.0 0.00 0.01 0.01 45 1012.7
20260904193605 93 170 5.0 10.0 0.00 0.01 0.01 45 1012.7
20260904193506 93 174 5.0 10.0 0.00 0.01 0.01 46 1012.8
20260904193405 93 177 5.0 10.0 0.00 0.01 0.01 46 1012.8
20260904193306 93 181 5.0 10.0 0.00 0.01 0.01 46 1012.8
20260904193205 93 182 5.0 10.0 0.00 0.01 0.01 47 1012.8
20260904193106 93 179 5.0 10.0 0.00 0.01 0.01 46 1012.8
20260904193005 93 176 6.0 10.0 0.00 0.01 0.01 47 1012.8
20260904192905 93 176 6.0 10.0 0.00 0.01 0.01 48 1012.9
20260904192805 93 175 6.0 11.0 0.00 0.01 0.01 48 1012.8
20260904192705 93 172 6.0 14.0 0.00 0.01 0.01 48 1012.8
20260904192605 93 169 6.0 14.0 0.00 0.01 0.01 48 1012.8
20260904192506 93 166 6.0 14.0 0.00 0.01 0.01 47 1012.9
20260904192405 93 163 6.0 14.0 0.00 0.01 0.01 48 1012.9
20260904192306 93 161 6.0 14.0 0.00 0.01 0.01 48 1012.9
20260904192205 93 156 6.0 14.0 0.00 0.01 0.01 48 1012.9
20260904192106 93 152 6.0 14.0 0.00 0.01 0.01 48 1012.9
20260904192005 93 147 6.0 14.0 0.00 0.01 0.01 47 1012.9
20260904191906 93 143 6.0 14.0 0.00 0.01 0.01 47 1012.9
20260904191805 93 140 6.0 14.0 0.00 0.01 0.01 47 1012.9
20260904191705 93 138 5.0 12.0 0.00 0.01 0.01 47 1012.9
20260904191605 93 139 6.0 12.0 0.00 0.01 0.01 48 1012.9
20260904191505 93 140 6.0 12.0 0.00 0.01 0.01 48 1012.9
20260904191405 93 142 5.0 12.0 0.00 0.01 0.01 48 1013.0
20260904191305 93 140 5.0 12.0 0.00 0.01 0.01 48 1013.0
20260904191205 92 140 5.0 12.0 0.00 0.01 0.01 48 1013.0
20260904191105 92 142 4.0 12.0 0.00 0.01 0.01 49 1013.0
20260904191005 92 147 5.0 10.0 0.00 0.01 0.01 49 1013.0
20260904190905 92 149 5.0 10.0 0.00 0.01 0.01 49 1013.1
20260904190804 92 153 5.0 10.0 0.00 0.01 0.01 49 1013.2
20260904190705 92 158 5.0 11.0 0.00 0.01 0.01 49 1013.2
20260904190605 92 159 5.0 11.0 0.00 0.01 0.01 50 1013.2
20260904190505 92 159 4.0 11.0 0.00 0.01 0.01 50 1013.1
20260904190405 92 164 5.0 11.0 0.00 0.01 0.01 50 1013.2
20260904190305 92 165 5.0 11.0 0.00 0.01 0.01 49 1013.2
20260904190205 92 166 5.0 11.0 0.00 0.01 0.01 49 1013.2
20260904190106 92 167 5.0 11.0 0.00 0.01 0.01 49 1013.2
20260904190007 92 168 5.0 11.0 0.00 0.01 0.01 50 1013.2
20260904185905 92 169 4.0 11.0 0.00 0.01 0.01 50 1013.2
20260904185806 92 170 4.0 11.0 0.00 0.01 0.01 50 1013.2
20260904185705 92 173 4.0 8.0 0.00 0.01 0.01 53 1013.2
20260904185605 92 178 4.0 8.0 0.00 0.01 0.01 53 1013.2
20260904185504 92 181 4.0 8.0 0.00 0.01 0.01 53 1013.2
20260904185405 92 177 4.0 8.0 0.00 0.01 0.01 53 1013.2
20260904185205 92 175 3.0 8.0 0.00 0.01 0.01 53 1013.3
20260904185104 92 172 3.0 8.0 0.00 0.01 0.01 53 1013.3
20260904185005 92 169 3.0 6.0 0.00 0.01 0.01 53 1013.2
20260904184805 92 145 2.0 6.0 0.00 0.01 0.01 53 1013.2
20260904184705 92 138 2.0 6.0 0.00 0.01 0.01 53 1013.3
20260904184605 92 128 2.0 5.0 0.00 0.01 0.01 53 1013.3
20260904184505 92 121 2.0 5.0 0.00 0.01 0.01 53 1013.3
20260904184405 92 129 2.0 5.0 0.00 0.01 0.01 53 1013.2
20260904184305 92 130 2.0 5.0 0.00 0.01 0.01 53 1013.3
20260904184206 91 126 2.0 5.0 0.00 0.01 0.01 53 1013.3
20260904184105 91 140 3.0 6.0 0.00 0.01 0.01 53 1013.3
20260904184005 92 145 3.0 7.0 0.00 0.01 0.01 52 1013.3
20260904183905 92 152 3.0 8.0 0.00 0.01 0.01 52 1013.3
20260904183805 92 162 3.0 8.0 0.00 0.01 0.01 53 1013.3
20260904183704 92 164 3.0 8.0 0.00 0.01 0.01 53 1013.4
20260904183304 92 183 4.0 8.0 0.00 0.01 0.01 51 1013.4
20260904183105 92 185 4.0 8.0 0.00 0.01 0.01 53 1013.4
20260904183005 92 190 4.0 8.0 0.00 0.01 0.01 53 1013.4
20260904182805 92 186 4.0 8.0 0.00 0.01 0.01 53 1013.4
20260904182604 91 184 5.0 10.0 0.00 0.01 0.01 54 1013.4
20260904182505 91 181 5.0 10.0 0.00 0.01 0.01 54 1013.4
20260904182405 91 176 5.0 10.0 0.00 0.01 0.01 53 1013.4
20260904182205 91 172 5.0 10.0 0.00 0.01 0.01 53 1013.4
20260904182105 91 168 5.0 10.0 0.00 0.01 0.01 54 1013.4
20260904181905 91 166 5.0 10.0 0.00 0.01 0.01 54 1013.5
20260904181805 91 168 5.0 10.0 0.00 0.01 0.01 53 1013.5
20260904181704 91 163 5.0 10.0 0.00 0.01 0.01 54 1013.5
20260904181605 91 165 5.0 10.0 0.00 0.01 0.01 54 1013.5
20260904181405 91 176 5.0 9.0 0.00 0.01 0.01 54 1013.5
20260904181306 91 182 5.0 9.0 0.00 0.01 0.01 54 1013.5
20260904181205 91 181 5.0 9.0 0.00 0.01 0.01 54 1013.5
20260904181105 91 177 5.0 9.0 0.00 0.01 0.01 53 1013.5
20260904180805 91 189 6.0 11.0 0.00 0.01 0.01 55 1013.5
20260904180705 91 194 6.0 11.0 0.00 0.01 0.01 55 1013.6
20260904180504 91 190 6.0 12.0 0.00 0.01 0.01 55 1013.6
20260904180405 91 188 6.0 12.0 0.00 0.01 0.01 55 1013.6
20260904180304 91 186 6.0 12.0 0.00 0.01 0.01 55 1013.6
20260904180205 91 185 6.0 12.0 0.00 0.01 0.01 55 1013.7
20260904180104 91 189 6.0 12.0 0.00 0.01 0.01 55 1013.7
20260904180005 91 186 6.0 12.0 0.00 0.01 0.01 55 1013.7
20260904175904 92 182 5.0 12.0 0.00 0.01 0.01 55 1013.7
20260904175805 92 170 5.0 12.0 0.00 0.01 0.01 56 1013.7
20260904175604 92 158 5.0 12.0 0.00 0.01 0.01 57 1013.7
20260904175505 91 152 5.0 9.0 0.00 0.01 0.01 57 1013.7
20260904175405 91 150 5.0 9.0 0.00 0.01 0.01 57 1013.8
20260904175306 91 153 5.0 9.0 0.00 0.01 0.01 57 1013.8
20260904175205 91 154 5.0 9.0 0.00 0.01 0.01 57 1013.8
20260904175105 90 156 5.0 9.0 0.00 0.01 0.01 58 1013.8
20260904175005 90 162 5.0 9.0 0.00 0.01 0.01 57 1013.8
20260904174904 90 171 6.0 10.0 0.00 0.01 0.01 57 1013.8
20260904174805 91 182 6.0 14.0 0.00 0.01 0.01 57 1013.9
20260904174704 91 188 6.0 14.0 0.00 0.01 0.01 57 1013.9
20260904174605 91 192 7.0 14.0 0.00 0.01 0.01 57 1013.9
20260904174504 91 196 7.0 14.0 0.00 0.01 0.01 56 1013.9
20260904174405 91 199 7.0 14.0 0.00 0.01 0.01 57 1013.9
20260904174304 91 202 7.0 14.0 0.00 0.01 0.01 57 1013.9
20260904174205 91 202 6.0 14.0 0.00 0.01 0.01 57 1013.9
20260904174005 90 201 6.0 14.0 0.00 0.01 0.01 57 1013.9
20260904173904 90 200 6.0 14.0 0.00 0.01 0.01 57 1013.9
20260904173805 90 198 6.0 12.0 0.00 0.01 0.01 58 1013.9
20260904173705 90 196 5.0 12.0 0.00 0.01 0.01 58 1014.0
20260904173405 90 178 5.0 11.0 0.00 0.01 0.01 58 1014.0
20260904173305 90 176 5.0 11.0 0.00 0.01 0.01 58 1014.0
20260904173205 90 175 5.0 11.0 0.00 0.01 0.01 58 1014.1
20260904173105 90 178 5.0 11.0 0.00 0.01 0.01 58 1014.1
20260904172905 90 178 5.0 11.0 0.00 0.01 0.01 59 1014.1
20260904172805 90 177 5.0 11.0 0.00 0.01 0.01 59 1014.1
20260904172205 90 189 4.0 11.0 0.00 0.01 0.01 58 1014.2
20260904172106 90 178 4.0 11.0 0.00 0.01 0.01 58 1014.2
20260904172005 90 173 4.0 11.0 0.00 0.01 0.01 58 1014.2
20260904171905 90 167 4.0 8.0 0.00 0.01 0.01 57 1014.2
20260904171804 91 167 5.0 13.0 0.00 0.01 0.01 57 1014.2
20260904171705 91 167 5.0 13.0 0.00 0.01 0.01 57 1014.2
20260904171605 91 167 5.0 13.0 0.00 0.01 0.01 57 1014.2
20260904171505 91 162 6.0 13.0 0.00 0.01 0.01 57 1014.1
20260904171405 91 164 6.0 13.0 0.00 0.01 0.01 57 1014.1
20260904171304 91 166 6.0 13.0 0.00 0.01 0.01 57 1014.1
20260904171205 92 167 6.0 13.0 0.00 0.01 0.01 58 1014.2
20260904171105 92 173 6.0 13.0 0.00 0.01 0.01 58 1014.1
20260904171006 92 176 6.0 13.0 0.00 0.01 0.01 57 1014.2
20260904170904 92 178 6.0 13.0 0.00 0.01 0.01 57 1014.2
20260904170804 92 178 5.0 12.0 0.00 0.01 0.01 56 1014.2
20260904170705 92 177 6.0 12.0 0.00 0.01 0.01 56 1014.2
20260904170604 92 177 5.0 12.0 0.00 0.01 0.01 56 1014.3
20260904170505 92 187 5.0 11.0 0.00 0.01 0.01 56 1014.3
20260904170404 92 192 6.0 12.0 0.00 0.01 0.01 58 1014.3
20260904170305 92 196 6.0 12.0 0.00 0.01 0.01 59 1014.4
20260904170204 91 200 6.0 12.0 0.00 0.01 0.01 58 1014.4
20260904170004 91 194 6.0 12.0 0.00 0.01 0.01 59 1014.3
20260904165905 91 196 7.0 12.0 0.00 0.01 0.01 59 1014.3
20260904165805 91 194 7.0 12.0 0.00 0.01 0.01 57 1014.3
20260904165704 91 194 7.0 12.0 0.00 0.01 0.01 58 1014.3
20260904165605 91 195 8.0 12.0 0.00 0.01 0.01 58 1014.3
20260904165505 91 193 8.0 12.0 0.00 0.01 0.01 59 1014.3
20260904165405 91 190 8.0 12.0 0.00 0.01 0.01 59 1014.3
20260904165305 91 187 7.0 12.0 0.00 0.01 0.01 59 1014.3
20260904165105 91 186 7.0 12.0 0.00 0.01 0.01 57 1014.3
20260904164805 91 199 6.0 12.0 0.00 0.01 0.01 57 1014.3
20260904164705 91 200 7.0 11.0 0.00 0.01 0.01 57 1014.2
20260904164604 91 198 6.0 11.0 0.00 0.01 0.01 57 1014.3
20260904164505 91 197 6.0 11.0 0.00 0.01 0.01 57 1014.3
20260904164404 91 196 6.0 11.0 0.00 0.01 0.01 58 1014.3
20260904164305 91 198 6.0 11.0 0.00 0.01 0.01 59 1014.3
20260904164105 91 198 6.0 11.0 0.00 0.01 0.01 57 1014.3
20260904164005 90 196 6.0 11.0 0.00 0.01 0.01 59 1014.3
20260904163905 91 196 7.0 11.0 0.00 0.01 0.01 59 1014.3
20260904163805 91 194 7.0 14.0 0.00 0.01 0.01 59 1014.3
20260904163704 90 193 7.0 14.0 0.00 0.01 0.01 59 1014.2
20260904163505 90 194 7.0 14.0 0.00 0.01 0.01 60 1014.2
20260904163405 90 197 7.0 14.0 0.00 0.01 0.01 61 1014.3
20260904163305 89 198 7.0 14.0 0.00 0.01 0.01 60 1014.3
20260904163205 89 196 7.0 14.0 0.00 0.01 0.01 61 1014.3
20260904163104 89 197 7.0 14.0 0.00 0.01 0.01 60 1014.3
20260904163005 89 197 7.0 14.0 0.00 0.01 0.01 60 1014.3
20260904162905 89 194 6.0 14.0 0.00 0.01 0.01 60 1014.3
20260904162805 89 194 6.0 13.0 0.00 0.01 0.01 60 1014.3
20260904162704 89 193 6.0 13.0 0.00 0.01 0.01 62 1014.3
20260904162605 89 190 6.0 11.0 0.00 0.01 0.01 62 1014.3
20260904162505 89 188 7.0 12.0 0.00 0.01 0.01 62 1014.4
20260904162405 89 185 7.0 12.0 0.00 0.01 0.01 63 1014.3
20260904162306 89 183 7.0 12.0 0.00 0.01 0.01 65 1014.3
20260904162204 88 184 7.0 12.0 0.00 0.01 0.01 65 1014.3
20260904162106 88 183 7.0 12.0 0.00 0.01 0.01 67 1014.3
20260904162005 87 183 7.0 12.0 0.00 0.01 0.01 67 1014.4
20260904161806 86 183 7.0 12.0 0.00 0.01 0.01 66 1014.4
20260904161705 87 185 7.0 12.0 0.00 0.01 0.01 65 1014.4
20260904161604 87 189 7.0 12.0 0.00 0.01 0.01 65 1014.4
20260904161505 87 190 6.0 12.0 0.00 0.01 0.01 65 1014.4
20260904161404 87 193 7.0 12.0 0.00 0.01 0.01 65 1014.4
20260904161305 87 195 7.0 12.0 0.00 0.01 0.01 65 1014.4
20260904161205 87 194 7.0 13.0 0.00 0.01 0.01 66 1014.4
20260904161105 87 192 7.0 13.0 0.00 0.01 0.01 66 1014.4
20260904160904 87 187 7.0 13.0 0.00 0.01 0.01 67 1014.4
20260904160705 87 187 7.0 13.0 0.00 0.01 0.01 67 1014.4
20260904160604 86 184 8.0 13.0 0.00 0.01 0.01 68 1014.4
20260904160505 86 182 8.0 13.0 0.00 0.01 0.01 68 1014.4
20260904160405 86 179 8.0 13.0 0.00 0.01 0.01 68 1014.4
20260904160304 86 178 8.0 13.0 0.00 0.01 0.01 68 1014.4
20260904160204 86 178 8.0 13.0 0.00 0.01 0.01 69 1014.3
20260904160105 86 181 8.0 13.0 0.00 0.01 0.01 69 1014.4
20260904160005 86 183 8.0 14.0 0.00 0.01 0.01 69 1014.3
20260904155905 86 185 8.0 14.0 0.00 0.01 0.01 70 1014.3
20260904155804 86 185 8.0 14.0 0.00 0.01 0.01 70 1014.3
20260904155705 86 183 8.0 14.0 0.00 0.01 0.01 69 1014.3
20260904155604 86 182 8.0 14.0 0.00 0.01 0.01 68 1014.3
20260904155505 86 183 8.0 14.0 0.00 0.01 0.01 69 1014.2
20260904155404 86 184 7.0 14.0 0.00 0.01 0.01 68 1014.3
20260904155307 86 182 7.0 14.0 0.00 0.01 0.01 69 1014.3
20260904155204 86 179 7.0 14.0 0.00 0.01 0.01 70 1014.3
20260904154905 86 175 6.0 11.0 0.00 0.01 0.01 72 1014.3
20260904154805 86 175 6.0 11.0 0.00 0.01 0.01 72 1014.3
20260904154705 85 177 6.0 11.0 0.00 0.01 0.01 72 1014.3
20260904154604 85 177 6.0 11.0 0.00 0.01 0.01 73 1014.2
20260904154505 85 175 6.0 11.0 0.00 0.01 0.01 74 1014.2
20260904154305 84 178 5.0 10.0 0.00 0.01 0.01 76 1014.2
20260904154105 84 183 5.0 10.0 0.00 0.01 0.01 76 1014.2
20260904154004 84 184 5.0 10.0 0.00 0.01 0.01 76 1014.2
20260904153905 84 185 5.0 10.0 0.00 0.01 0.01 77 1014.2
20260904153804 84 186 5.0 10.0 0.00 0.01 0.01 78 1014.2
20260904153705 84 186 5.0 10.0 0.00 0.01 0.01 77 1014.1